Wetterdaten: Samstag, 27.10.2012
Datum Zeit Temp. Innen Temp. Aussen UV X Diff Temp. Feuchte Inne Feuchte Auss Sonnenschein Luftdruck Regen ab 0,1 Wind Sonnenschein T Regendauer Windben
27.10.2012 00:00 17,5 C 4,3 C 0,0 UV-I 0,0 C 47 % 79 % 0 % 1003,4 hPa 0,0 l/m 10,0 km/h (2 Bft) 0 min 0 min 17,7 km/h (3 Bft)
27.10.2012 00:02 17,5 C 4,3 C 0,0 UV-I 0,0 C 47 % 79 % 0 % 1003,4 hPa 0,0 l/m 9,6 km/h (2 Bft) 0 min 0 min 9,6 km/h (2 Bft)
27.10.2012 00:06 17,5 C 4,3 C 0,0 UV-I 0,0 C 47 % 79 % 0 % 1002,9 hPa 0,0 l/m 10,0 km/h (2 Bft) 0 min 0 min 11,2 km/h (2 Bft)
27.10.2012 00:08 17,5 C 4,2 C 0,0 UV-I 0,0 C 47 % 79 % 0 % 1002,9 hPa 0,0 l/m 10,0 km/h (2 Bft) 0 min 0 min 7,6 km/h (2 Bft)
27.10.2012 00:10 17,5 C 4,3 C 0,0 UV-I 0,0 C 47 % 79 % 0 % 1002,9 hPa 0,0 l/m 10,8 km/h (2 Bft) 0 min 0 min 11,2 km/h (2 Bft)
27.10.2012 00:12 17,5 C 4,3 C 0,0 UV-I 0,0 C 47 % 79 % 0 % 1002,9 hPa 0,0 l/m 10,0 km/h (2 Bft) 0 min 0 min 7,6 km/h (2 Bft)
27.10.2012 00:14 17,5 C 4,3 C 0,0 UV-I 0,0 C 47 % 79 % 0 % 1002,9 hPa 0,0 l/m 9,6 km/h (2 Bft) 0 min 0 min 12,4 km/h (3 Bft)
27.10.2012 00:16 17,5 C 4,2 C 0,0 UV-I 0,0 C 47 % 79 % 0 % 1002,9 hPa 0,0 l/m 9,2 km/h (2 Bft) 0 min 0 min 13,3 km/h (3 Bft)
27.10.2012 00:18 17,5 C 4,1 C 0,0 UV-I 0,0 C 47 % 79 % 0 % 1002,9 hPa 0,0 l/m 8,8 km/h (2 Bft) 0 min 0 min 10,8 km/h (2 Bft)
27.10.2012 00:20 17,5 C 4,1 C 0,0 UV-I 0,0 C 47 % 79 % 0 % 1002,9 hPa 0,0 l/m 9,2 km/h (2 Bft) 0 min 0 min 17,3 km/h (3 Bft)
27.10.2012 00:22 17,5 C 4,1 C 0,0 UV-I 0,0 C 47 % 79 % 0 % 1002,9 hPa 0,0 l/m 9,6 km/h (2 Bft) 0 min 0 min 19,3 km/h (3 Bft)
27.10.2012 00:24 17,5 C 4,1 C 0,0 UV-I 0,0 C 47 % 79 % 0 % 1002,9 hPa 0,0 l/m 9,6 km/h (2 Bft) 0 min 0 min 19,3 km/h (3 Bft)
27.10.2012 00:26 17,5 C 4,1 C 0,0 UV-I 0,0 C 47 % 79 % 0 % 1003,0 hPa 0,0 l/m 10,8 km/h (2 Bft) 0 min 0 min 9,2 km/h (2 Bft)
27.10.2012 00:28 17,5 C 4,0 C 0,0 UV-I 0,0 C 47 % 80 % 0 % 1003,0 hPa 0,0 l/m 11,2 km/h (2 Bft) 0 min 0 min 19,3 km/h (3 Bft)
27.10.2012 00:30 17,5 C 4,0 C 0,0 UV-I 0,0 C 47 % 80 % 0 % 1003,0 hPa 0,0 l/m 11,2 km/h (2 Bft) 0 min 0 min 11,6 km/h (2 Bft)
27.10.2012 00:32 17,5 C 4,1 C 0,0 UV-I 0,0 C 47 % 80 % 0 % 1003,0 hPa 0,0 l/m 10,8 km/h (2 Bft) 0 min 0 min 12,0 km/h (2 Bft)
27.10.2012 00:34 17,4 C 4,1 C 0,0 UV-I 0,0 C 47 % 80 % 0 % 1003,0 hPa 0,0 l/m 10,0 km/h (2 Bft) 0 min 0 min 12,8 km/h (3 Bft)
27.10.2012 00:36 17,5 C 4,0 C 0,0 UV-I 0,0 C 47 % 80 % 0 % 1003,0 hPa 0,0 l/m 9,6 km/h (2 Bft) 0 min 0 min 12,0 km/h (2 Bft)
27.10.2012 00:38 17,5 C 4,0 C 0,0 UV-I 0,0 C 47 % 80 % 0 % 1003,0 hPa 0,0 l/m 9,6 km/h (2 Bft) 0 min 0 min 6,0 km/h (2 Bft)
27.10.2012 00:40 17,5 C 4,0 C 0,0 UV-I 0,0 C 47 % 80 % 0 % 1003,0 hPa 0,0 l/m 9,6 km/h (2 Bft) 0 min 0 min 12,0 km/h (2 Bft)
27.10.2012 00:42 17,4 C 4,0 C 0,0 UV-I 0,0 C 47 % 80 % 0 % 1003,0 hPa 0,0 l/m 9,2 km/h (2 Bft) 0 min 0 min 8,8 km/h (2 Bft)
27.10.2012 00:44 17,5 C 3,9 C 0,0 UV-I 0,0 C 47 % 80 % 0 % 1003,0 hPa 0,0 l/m 9,2 km/h (2 Bft) 0 min 0 min 8,8 km/h (2 Bft)
27.10.2012 00:46 17,4 C 3,9 C 0,0 UV-I 0,0 C 47 % 80 % 0 % 1002,9 hPa 0,0 l/m 9,6 km/h (2 Bft) 0 min 0 min 9,6 km/h (2 Bft)
27.10.2012 00:48 17,4 C 4,0 C 0,0 UV-I 0,0 C 47 % 80 % 0 % 1002,9 hPa 0,0 l/m 8,4 km/h (2 Bft) 0 min 0 min 7,2 km/h (2 Bft)
27.10.2012 00:50 17,4 C 3,9 C 0,0 UV-I 0,0 C 47 % 80 % 0 % 1002,9 hPa 0,0 l/m 9,2 km/h (2 Bft) 0 min 0 min 14,1 km/h (3 Bft)
27.10.2012 00:52 17,4 C 3,9 C 0,0 UV-I 0,0 C 47 % 80 % 0 % 1002,9 hPa 0,0 l/m 10,0 km/h (2 Bft) 0 min 0 min 16,1 km/h (3 Bft)
27.10.2012 00:54 17,4 C 3,9 C 0,0 UV-I 0,0 C 47 % 80 % 0 % 1002,9 hPa 0,0 l/m 10,4 km/h (2 Bft) 0 min 0 min 17,7 km/h (3 Bft)
27.10.2012 00:56 17,4 C 3,9 C 0,0 UV-I 0,0 C 47 % 80 % 0 % 1002,9 hPa 0,0 l/m 10,4 km/h (2 Bft) 0 min 0 min 13,3 km/h (3 Bft)
27.10.2012 00:58 17,4 C 3,9 C 0,0 UV-I 0,0 C 47 % 80 % 0 % 1002,9 hPa 0,0 l/m 10,8 km/h (2 Bft) 0 min 0 min 22,5 km/h (4 Bft)
27.10.2012 01:00 17,4 C 3,8 C 0,0 UV-I 0,0 C 47 % 80 % 0 % 1002,9 hPa 0,0 l/m 10,8 km/h (2 Bft) 0 min 0 min 10,8 km/h (2 Bft)
27.10.2012 01:02 17,4 C 3,9 C 0,0 UV-I 0,0 C 47 % 80 % 0 % 1002,9 hPa 0,0 l/m 10,8 km/h (2 Bft) 0 min 0 min 14,5 km/h (3 Bft)
27.10.2012 01:04 17,4 C 3,9 C 0,0 UV-I 0,0 C 47 % 80 % 0 % 1002,9 hPa 0,0 l/m 10,8 km/h (2 Bft) 0 min 0 min 14,5 km/h (3 Bft)
27.10.2012 01:06 17,4 C 3,9 C 0,0 UV-I 0,0 C 47 % 80 % 0 % 1002,7 hPa 0,0 l/m 10,4 km/h (2 Bft) 0 min 0 min 12,4 km/h (3 Bft)
27.10.2012 01:08 17,4 C 3,9 C 0,0 UV-I 0,0 C 47 % 80 % 0 % 1002,7 hPa 0,0 l/m 10,4 km/h (2 Bft) 0 min 0 min 14,5 km/h (3 Bft)
27.10.2012 01:10 17,4 C 3,7 C 0,0 UV-I 0,0 C 47 % 80 % 0 % 1002,7 hPa 0,0 l/m 10,4 km/h (2 Bft) 0 min 0 min 7,2 km/h (2 Bft)
27.10.2012 01:12 17,4 C 3,7 C 0,0 UV-I 0,0 C 47 % 80 % 0 % 1002,7 hPa 0,0 l/m 10,4 km/h (2 Bft) 0 min 0 min 12,0 km/h (2 Bft)
27.10.2012 01:14 17,4 C 3,7 C 0,0 UV-I 0,0 C 47 % 80 % 0 % 1002,7 hPa 0,0 l/m 10,4 km/h (2 Bft) 0 min 0 min 17,3 km/h (3 Bft)
27.10.2012 01:16 17,4 C 3,7 C 0,0 UV-I 0,0 C 47 % 80 % 0 % 1002,7 hPa 0,0 l/m 10,8 km/h (2 Bft) 0 min 0 min 20,9 km/h (4 Bft)
27.10.2012 01:18 17,4 C 3,6 C 0,0 UV-I 0,0 C 47 % 80 % 0 % 1002,7 hPa 0,0 l/m 11,2 km/h (2 Bft) 0 min 0 min 24,1 km/h (4 Bft)
27.10.2012 01:20 17,4 C 3,6 C 0,0 UV-I 0,0 C 47 % 80 % 0 % 1002,7 hPa 0,0 l/m 10,8 km/h (2 Bft) 0 min 0 min 10,0 km/h (2 Bft)
27.10.2012 01:22 17,4 C 3,6 C 0,0 UV-I 0,0 C 47 % 80 % 0 % 1002,7 hPa 0,0 l/m 10,4 km/h (2 Bft) 0 min 0 min 11,6 km/h (2 Bft)
27.10.2012 01:24 17,4 C 3,6 C 0,0 UV-I 0,0 C 47 % 80 % 0 % 1002,7 hPa 0,0 l/m 10,4 km/h (2 Bft) 0 min 0 min 11,6 km/h (2 Bft)
27.10.2012 01:26 17,4 C 3,7 C 0,0 UV-I 0,0 C 47 % 80 % 0 % 1002,6 hPa 0,0 l/m 9,6 km/h (2 Bft) 0 min 0 min 11,2 km/h (2 Bft)
27.10.2012 01:28 17,2 C 3,6 C 0,0 UV-I 0,0 C 47 % 80 % 0 % 1002,6 hPa 0,0 l/m 8,8 km/h (2 Bft) 0 min 0 min 10,8 km/h (2 Bft)
27.10.2012 01:30 17,2 C 3,6 C 0,0 UV-I 0,0 C 47 % 80 % 0 % 1002,6 hPa 0,0 l/m 8,4 km/h (2 Bft) 0 min 0 min 8,8 km/h (2 Bft)
27.10.2012 01:32 17,2 C 3,5 C 0,0 UV-I 0,0 C 47 % 80 % 0 % 1002,6 hPa 0,0 l/m 8,4 km/h (2 Bft) 0 min 0 min 6,0 km/h (2 Bft)
27.10.2012 01:34 17,2 C 3,5 C 0,0 UV-I 0,0 C 47 % 80 % 0 % 1002,6 hPa 0,0 l/m 8,0 km/h (2 Bft) 0 min 0 min 7,2 km/h (2 Bft)
27.10.2012 01:36 17,2 C 3,4 C 0,0 UV-I 0,0 C 47 % 80 % 0 % 1002,6 hPa 0,0 l/m 8,4 km/h (2 Bft) 0 min 0 min 8,8 km/h (2 Bft)
27.10.2012 01:38 17,2 C 3,5 C 0,0 UV-I 0,0 C 47 % 80 % 0 % 1002,6 hPa 0,0 l/m 8,4 km/h (2 Bft) 0 min 0 min 13,7 km/h (3 Bft)
27.10.2012 01:40 17,2 C 3,5 C 0,0 UV-I 0,0 C 47 % 80 % 0 % 1002,6 hPa 0,0 l/m 8,4 km/h (2 Bft) 0 min 0 min 12,0 km/h (2 Bft)
27.10.2012 01:42 17,2 C 3,3 C 0,0 UV-I 0,0 C 47 % 80 % 0 % 1002,6 hPa 0,0 l/m 8,4 km/h (2 Bft) 0 min 0 min 5,6 km/h (1 Bft)
27.10.2012 01:44 17,2 C 3,3 C 0,0 UV-I 0,0 C 46 % 81 % 0 % 1002,6 hPa 0,0 l/m 8,4 km/h (2 Bft) 0 min 0 min 5,6 km/h (1 Bft)
27.10.2012 01:46 17,2 C 3,3 C 0,0 UV-I 0,0 C 47 % 81 % 0 % 1002,4 hPa 0,0 l/m 8,0 km/h (2 Bft) 0 min 0 min 9,6 km/h (2 Bft)
27.10.2012 01:48 17,2 C 3,2 C 0,0 UV-I 0,0 C 47 % 81 % 0 % 1002,4 hPa 0,0 l/m 7,6 km/h (2 Bft) 0 min 0 min 11,2 km/h (2 Bft)
27.10.2012 01:50 17,2 C 3,2 C 0,0 UV-I 0,0 C 47 % 81 % 0 % 1002,4 hPa 0,0 l/m 8,0 km/h (2 Bft) 0 min 0 min 11,6 km/h (2 Bft)
27.10.2012 01:52 17,2 C 3,2 C 0,0 UV-I 0,0 C 47 % 81 % 0 % 1002,4 hPa 0,0 l/m 8,0 km/h (2 Bft) 0 min 0 min 7,2 km/h (2 Bft)
27.10.2012 01:54 17,3 C 3,2 C 0,0 UV-I 0,0 C 47 % 81 % 0 % 1002,4 hPa 0,0 l/m 8,8 km/h (2 Bft) 0 min 0 min 16,1 km/h (3 Bft)
27.10.2012 01:56 17,3 C 3,1 C 0,0 UV-I 0,0 C 47 % 81 % 0 % 1002,4 hPa 0,0 l/m 10,0 km/h (2 Bft) 0 min 0 min 15,7 km/h (3 Bft)
27.10.2012 01:58 17,3 C 3,1 C 0,0 UV-I 0,0 C 47 % 81 % 0 % 1002,4 hPa 0,0 l/m 10,0 km/h (2 Bft) 0 min 0 min 25,3 km/h (4 Bft)
27.10.2012 02:00 17,3 C 3,1 C 0,0 UV-I 0,0 C 47 % 81 % 0 % 1002,4 hPa 0,0 l/m 10,4 km/h (2 Bft) 0 min 0 min 18,5 km/h (3 Bft)
27.10.2012 02:02 17,2 C 3,0 C 0,0 UV-I 0,0 C 46 % 81 % 0 % 1002,4 hPa 0,0 l/m 11,6 km/h (2 Bft) 0 min 0 min 27,3 km/h (4 Bft)
27.10.2012 02:04 17,2 C 3,0 C 0,0 UV-I 0,0 C 47 % 81 % 0 % 1002,4 hPa 0,0 l/m 11,6 km/h (2 Bft) 0 min 0 min 27,3 km/h (4 Bft)
27.10.2012 02:06 17,2 C 3,1 C 0,0 UV-I 0,0 C 46 % 81 % 0 % 1002,8 hPa 0,0 l/m 11,6 km/h (2 Bft) 0 min 0 min 10,0 km/h (2 Bft)
27.10.2012 02:08 17,2 C 3,1 C 0,0 UV-I 0,0 C 46 % 81 % 0 % 1002,8 hPa 0,0 l/m 11,6 km/h (2 Bft) 0 min 0 min 27,3 km/h (4 Bft)
27.10.2012 02:10 17,2 C 3,0 C 0,0 UV-I 0,0 C 47 % 81 % 0 % 1002,8 hPa 0,0 l/m 12,0 km/h (2 Bft) 0 min 0 min 10,0 km/h (2 Bft)
27.10.2012 02:12 17,2 C 3,0 C 0,0 UV-I 0,0 C 46 % 81 % 0 % 1002,8 hPa 0,0 l/m 11,6 km/h (2 Bft) 0 min 0 min 13,3 km/h (3 Bft)
27.10.2012 02:14 17,2 C 2,9 C 0,0 UV-I 0,0 C 46 % 81 % 0 % 1002,8 hPa 0,0 l/m 10,8 km/h (2 Bft) 0 min 0 min 15,7 km/h (3 Bft)
27.10.2012 02:16 17,2 C 2,9 C 0,0 UV-I 0,0 C 46 % 81 % 0 % 1002,8 hPa 0,0 l/m 10,4 km/h (2 Bft) 0 min 0 min 13,3 km/h (3 Bft)
27.10.2012 02:18 17,2 C 2,9 C 0,0 UV-I 0,0 C 46 % 81 % 0 % 1002,8 hPa 0,0 l/m 11,2 km/h (2 Bft) 0 min 0 min 19,3 km/h (3 Bft)
27.10.2012 02:20 17,2 C 2,8 C 0,0 UV-I 0,0 C 46 % 81 % 0 % 1002,8 hPa 0,0 l/m 12,4 km/h (3 Bft) 0 min 0 min 21,7 km/h (4 Bft)
27.10.2012 02:22 17,2 C 2,8 C 0,0 UV-I 0,0 C 46 % 81 % 0 % 1002,8 hPa 0,0 l/m 13,7 km/h (3 Bft) 0 min 0 min 32,9 km/h (5 Bft)
27.10.2012 02:24 17,2 C 2,8 C 0,0 UV-I 0,0 C 46 % 81 % 0 % 1002,8 hPa 0,0 l/m 13,7 km/h (3 Bft) 0 min 0 min 32,9 km/h (5 Bft)
27.10.2012 02:26 17,2 C 2,8 C 0,0 UV-I 0,0 C 46 % 81 % 0 % 1002,6 hPa 0,0 l/m 12,8 km/h (3 Bft) 0 min 0 min 21,7 km/h (4 Bft)
27.10.2012 02:28 17,2 C 2,9 C 0,0 UV-I 0,0 C 46 % 81 % 0 % 1002,6 hPa 0,0 l/m 13,3 km/h (3 Bft) 0 min 0 min 32,9 km/h (5 Bft)
27.10.2012 02:30 17,2 C 2,8 C 0,0 UV-I 0,0 C 46 % 81 % 0 % 1002,6 hPa 0,0 l/m 12,4 km/h (3 Bft) 0 min 0 min 11,2 km/h (2 Bft)
27.10.2012 02:32 17,2 C 2,8 C 0,0 UV-I 0,0 C 46 % 81 % 0 % 1002,6 hPa 0,0 l/m 11,6 km/h (2 Bft) 0 min 0 min 13,3 km/h (3 Bft)
27.10.2012 02:34 17,2 C 2,7 C 0,0 UV-I 0,0 C 46 % 81 % 0 % 1002,6 hPa 0,0 l/m 11,6 km/h (2 Bft) 0 min 0 min 21,7 km/h (4 Bft)
27.10.2012 02:36 17,2 C 2,7 C 0,0 UV-I 0,0 C 46 % 81 % 0 % 1002,6 hPa 0,0 l/m 12,4 km/h (3 Bft) 0 min 0 min 8,4 km/h (2 Bft)
27.10.2012 02:38 17,2 C 2,7 C 0,0 UV-I 0,0 C 46 % 81 % 0 % 1002,6 hPa 0,0 l/m 12,4 km/h (3 Bft) 0 min 0 min 16,1 km/h (3 Bft)
27.10.2012 02:40 17,2 C 2,7 C 0,0 UV-I 0,0 C 46 % 81 % 0 % 1002,6 hPa 0,0 l/m 12,0 km/h (2 Bft) 0 min 0 min 17,7 km/h (3 Bft)
27.10.2012 02:42 17,2 C 2,7 C 0,0 UV-I 0,0 C 46 % 81 % 0 % 1002,6 hPa 0,0 l/m 12,4 km/h (3 Bft) 0 min 0 min 13,7 km/h (3 Bft)
27.10.2012 02:44 17,2 C 2,7 C 0,0 UV-I 0,0 C 46 % 82 % 0 % 1002,6 hPa 0,0 l/m 12,4 km/h (3 Bft) 0 min 0 min 13,7 km/h (3 Bft)
27.10.2012 02:46 17,2 C 2,7 C 0,0 UV-I 0,0 C 46 % 82 % 0 % 1002,4 hPa 0,0 l/m 11,2 km/h (2 Bft) 0 min 0 min 11,2 km/h (2 Bft)
27.10.2012 02:48 17,2 C 2,7 C 0,0 UV-I 0,0 C 46 % 82 % 0 % 1002,4 hPa 0,0 l/m 11,2 km/h (2 Bft) 0 min 0 min 15,3 km/h (3 Bft)
27.10.2012 02:50 17,2 C 2,7 C 0,0 UV-I 0,0 C 46 % 82 % 0 % 1002,4 hPa 0,0 l/m 10,8 km/h (2 Bft) 0 min 0 min 19,3 km/h (3 Bft)
27.10.2012 02:52 17,2 C 2,7 C 0,0 UV-I 0,0 C 46 % 82 % 0 % 1002,4 hPa 0,0 l/m 10,8 km/h (2 Bft) 0 min 0 min 22,5 km/h (4 Bft)
27.10.2012 02:54 17,1 C 2,7 C 0,0 UV-I 0,0 C 46 % 82 % 0 % 1002,4 hPa 0,0 l/m 10,4 km/h (2 Bft) 0 min 0 min 9,2 km/h (2 Bft)
27.10.2012 02:56 17,1 C 2,7 C 0,0 UV-I 0,0 C 46 % 82 % 0 % 1002,4 hPa 0,0 l/m 10,0 km/h (2 Bft) 0 min 0 min 13,7 km/h (3 Bft)
27.10.2012 02:58 17,1 C 2,6 C 0,0 UV-I 0,0 C 46 % 82 % 0 % 1002,4 hPa 0,0 l/m 10,0 km/h (2 Bft) 0 min 0 min 10,8 km/h (2 Bft)
27.10.2012 03:00 17,1 C 2,6 C 0,0 UV-I 0,0 C 46 % 82 % 0 % 1002,4 hPa 0,0 l/m 10,0 km/h (2 Bft) 0 min 0 min 15,7 km/h (3 Bft)
27.10.2012 03:02 17,1 C 2,5 C 0,0 UV-I 0,0 C 46 % 82 % 0 % 1002,4 hPa 0,0 l/m 9,6 km/h (2 Bft) 0 min 0 min 13,7 km/h (3 Bft)
27.10.2012 03:04 17,1 C 2,6 C 0,0 UV-I 0,0 C 46 % 82 % 0 % 1002,4 hPa 0,0 l/m 9,6 km/h (2 Bft) 0 min 0 min 13,7 km/h (3 Bft)
27.10.2012 03:06 17,1 C 2,5 C 0,0 UV-I 0,0 C 46 % 82 % 0 % 1002,4 hPa 0,0 l/m 10,4 km/h (2 Bft) 0 min 0 min 13,3 km/h (3 Bft)
27.10.2012 03:08 17,1 C 2,5 C 0,0 UV-I 0,0 C 46 % 82 % 0 % 1002,4 hPa 0,0 l/m 10,4 km/h (2 Bft) 0 min 0 min 19,3 km/h (3 Bft)
27.10.2012 03:10 17,1 C 2,5 C 0,0 UV-I 0,0 C 46 % 82 % 0 % 1002,4 hPa 0,0 l/m 10,8 km/h (2 Bft) 0 min 0 min 10,0 km/h (2 Bft)
27.10.2012 03:12 17,1 C 2,4 C 0,0 UV-I 0,0 C 46 % 82 % 0 % 1002,4 hPa 0,0 l/m 10,0 km/h (2 Bft) 0 min 0 min 5,6 km/h (1 Bft)
27.10.2012 03:14 17,1 C 2,4 C 0,0 UV-I 0,0 C 46 % 82 % 0 % 1002,4 hPa 0,0 l/m 8,8 km/h (2 Bft) 0 min 0 min 8,8 km/h (2 Bft)
27.10.2012 03:16 17,1 C 2,4 C 0,0 UV-I 0,0 C 46 % 82 % 0 % 1002,4 hPa 0,0 l/m 8,4 km/h (2 Bft) 0 min 0 min 4,4 km/h (1 Bft)
27.10.2012 03:18 17,1 C 2,5 C 0,0 UV-I 0,0 C 46 % 82 % 0 % 1002,4 hPa 0,0 l/m 8,4 km/h (2 Bft) 0 min 0 min 12,0 km/h (2 Bft)
27.10.2012 03:20 17,1 C 2,5 C 0,0 UV-I 0,0 C 46 % 82 % 0 % 1002,4 hPa 0,0 l/m 7,2 km/h (2 Bft) 0 min 0 min 12,4 km/h (3 Bft)
27.10.2012 03:22 17,0 C 2,4 C 0,0 UV-I 0,0 C 46 % 82 % 0 % 1002,4 hPa 0,0 l/m 6,8 km/h (2 Bft) 0 min 0 min 5,2 km/h (1 Bft)
27.10.2012 03:24 17,0 C 2,3 C 0,0 UV-I 0,0 C 46 % 82 % 0 % 1002,4 hPa 0,0 l/m 6,8 km/h (2 Bft) 0 min 0 min 5,2 km/h (1 Bft)
27.10.2012 03:26 17,0 C 2,3 C 0,0 UV-I 0,0 C 46 % 82 % 0 % 1002,0 hPa 0,0 l/m 6,8 km/h (2 Bft) 0 min 0 min 9,2 km/h (2 Bft)
27.10.2012 03:28 17,0 C 2,2 C 0,0 UV-I 0,0 C 46 % 82 % 0 % 1002,0 hPa 0,0 l/m 6,4 km/h (2 Bft) 0 min 0 min 0,0 km/h (0 Bft)
27.10.2012 03:30 17,0 C 2,3 C 0,0 UV-I 0,0 C 46 % 82 % 0 % 1002,0 hPa 0,0 l/m 6,0 km/h (2 Bft) 0 min 0 min 8,4 km/h (2 Bft)
27.10.2012 03:32 17,0 C 2,3 C 0,0 UV-I 0,0 C 46 % 82 % 0 % 1002,0 hPa 0,0 l/m 5,6 km/h (1 Bft) 0 min 0 min 5,6 km/h (1 Bft)
27.10.2012 03:34 17,0 C 2,2 C 0,0 UV-I 0,0 C 46 % 82 % 0 % 1002,0 hPa 0,0 l/m 5,6 km/h (1 Bft) 0 min 0 min 7,2 km/h (2 Bft)
27.10.2012 03:36 17,0 C 2,1 C 0,0 UV-I 0,0 C 46 % 82 % 0 % 1002,0 hPa 0,0 l/m 5,2 km/h (1 Bft) 0 min 0 min 6,4 km/h (2 Bft)
27.10.2012 03:38 17,0 C 2,1 C 0,0 UV-I 0,0 C 46 % 82 % 0 % 1002,0 hPa 0,0 l/m 5,2 km/h (1 Bft) 0 min 0 min 14,5 km/h (3 Bft)
27.10.2012 03:40 17,0 C 2,0 C 0,0 UV-I 0,0 C 46 % 82 % 0 % 1002,0 hPa 0,0 l/m 5,6 km/h (1 Bft) 0 min 0 min 6,0 km/h (2 Bft)
27.10.2012 03:42 17,0 C 2,1 C 0,0 UV-I 0,0 C 46 % 82 % 0 % 1002,0 hPa 0,0 l/m 6,0 km/h (2 Bft) 0 min 0 min 6,8 km/h (2 Bft)
27.10.2012 03:44 17,0 C 2,0 C 0,0 UV-I 0,0 C 46 % 83 % 0 % 1002,0 hPa 0,0 l/m 6,0 km/h (2 Bft) 0 min 0 min 6,8 km/h (2 Bft)
27.10.2012 03:46 17,0 C 2,0 C 0,0 UV-I 0,0 C 46 % 83 % 0 % 1002,2 hPa 0,0 l/m 6,8 km/h (2 Bft) 0 min 0 min 6,4 km/h (2 Bft)
27.10.2012 03:48 17,0 C 1,9 C 0,0 UV-I 0,0 C 46 % 83 % 0 % 1002,2 hPa 0,0 l/m 6,8 km/h (2 Bft) 0 min 0 min 7,2 km/h (2 Bft)
27.10.2012 03:50 17,0 C 1,9 C 0,0 UV-I 0,0 C 46 % 83 % 0 % 1002,2 hPa 0,0 l/m 6,8 km/h (2 Bft) 0 min 0 min 4,8 km/h (1 Bft)
27.10.2012 03:52 17,0 C 1,9 C 0,0 UV-I 0,0 C 46 % 83 % 0 % 1002,2 hPa 0,0 l/m 7,2 km/h (2 Bft) 0 min 0 min 9,2 km/h (2 Bft)
27.10.2012 03:54 17,0 C 1,8 C 0,0 UV-I 0,0 C 46 % 83 % 0 % 1002,2 hPa 0,0 l/m 6,4 km/h (2 Bft) 0 min 0 min 8,0 km/h (2 Bft)
27.10.2012 03:56 17,0 C 1,9 C 0,0 UV-I 0,0 C 46 % 83 % 0 % 1002,2 hPa 0,0 l/m 6,4 km/h (2 Bft) 0 min 0 min 9,6 km/h (2 Bft)
27.10.2012 03:58 17,0 C 1,8 C 0,0 UV-I 0,0 C 46 % 83 % 0 % 1002,2 hPa 0,0 l/m 7,2 km/h (2 Bft) 0 min 0 min 7,2 km/h (2 Bft)
27.10.2012 04:00 17,0 C 1,7 C 0,0 UV-I 0,0 C 46 % 83 % 0 % 1002,2 hPa 0,0 l/m 6,8 km/h (2 Bft) 0 min 0 min 10,0 km/h (2 Bft)
27.10.2012 04:02 17,0 C 1,7 C 0,0 UV-I 0,0 C 46 % 83 % 0 % 1002,2 hPa 0,0 l/m 6,8 km/h (2 Bft) 0 min 0 min 6,8 km/h (2 Bft)
27.10.2012 04:04 17,0 C 1,6 C 0,0 UV-I 0,0 C 46 % 83 % 0 % 1002,2 hPa 0,0 l/m 6,8 km/h (2 Bft) 0 min 0 min 6,8 km/h (2 Bft)
27.10.2012 04:06 17,0 C 1,6 C 0,0 UV-I 0,0 C 46 % 83 % 0 % 1002,1 hPa 0,0 l/m 6,8 km/h (2 Bft) 0 min 0 min 10,4 km/h (2 Bft)
27.10.2012 04:08 16,9 C 1,6 C 0,0 UV-I 0,0 C 46 % 83 % 0 % 1002,1 hPa 0,0 l/m 6,4 km/h (2 Bft) 0 min 0 min 8,8 km/h (2 Bft)
27.10.2012 04:10 16,9 C 1,6 C 0,0 UV-I 0,0 C 46 % 83 % 0 % 1002,1 hPa 0,0 l/m 7,2 km/h (2 Bft) 0 min 0 min 7,6 km/h (2 Bft)
27.10.2012 04:12 16,9 C 1,6 C 0,0 UV-I 0,0 C 46 % 83 % 0 % 1002,1 hPa 0,0 l/m 7,2 km/h (2 Bft) 0 min 0 min 7,2 km/h (2 Bft)
27.10.2012 04:14 16,9 C 1,6 C 0,0 UV-I 0,0 C 46 % 83 % 0 % 1002,1 hPa 0,0 l/m 7,2 km/h (2 Bft) 0 min 0 min 9,6 km/h (2 Bft)
27.10.2012 04:16 16,9 C 1,6 C 0,0 UV-I 0,0 C 46 % 83 % 0 % 1002,1 hPa 0,0 l/m 7,6 km/h (2 Bft) 0 min 0 min 12,8 km/h (3 Bft)
27.10.2012 04:18 16,9 C 1,5 C 0,0 UV-I 0,0 C 46 % 84 % 0 % 1002,1 hPa 0,0 l/m 7,2 km/h (2 Bft) 0 min 0 min 5,6 km/h (1 Bft)
27.10.2012 04:20 16,9 C 1,5 C 0,0 UV-I 0,0 C 46 % 84 % 0 % 1002,1 hPa 0,0 l/m 7,2 km/h (2 Bft) 0 min 0 min 12,0 km/h (2 Bft)
27.10.2012 04:22 16,9 C 1,5 C 0,0 UV-I 0,0 C 46 % 84 % 0 % 1002,1 hPa 0,0 l/m 7,2 km/h (2 Bft) 0 min 0 min 9,2 km/h (2 Bft)
27.10.2012 04:24 16,9 C 1,4 C 0,0 UV-I 0,0 C 46 % 84 % 0 % 1002,1 hPa 0,0 l/m 7,2 km/h (2 Bft) 0 min 0 min 9,2 km/h (2 Bft)
27.10.2012 04:26 16,9 C 1,5 C 0,0 UV-I 0,0 C 46 % 84 % 0 % 1001,9 hPa 0,0 l/m 6,4 km/h (2 Bft) 0 min 0 min 5,6 km/h (1 Bft)
27.10.2012 04:28 16,9 C 1,5 C 0,0 UV-I 0,0 C 46 % 84 % 0 % 1001,9 hPa 0,0 l/m 6,4 km/h (2 Bft) 0 min 0 min 9,6 km/h (2 Bft)
27.10.2012 04:30 16,9 C 1,5 C 0,0 UV-I 0,0 C 46 % 84 % 0 % 1001,9 hPa 0,0 l/m 7,2 km/h (2 Bft) 0 min 0 min 11,2 km/h (2 Bft)
27.10.2012 04:32 16,9 C 1,4 C 0,0 UV-I 0,0 C 46 % 84 % 0 % 1001,9 hPa 0,0 l/m 6,8 km/h (2 Bft) 0 min 0 min 8,4 km/h (2 Bft)
27.10.2012 04:34 16,9 C 1,3 C 0,0 UV-I 0,0 C 46 % 84 % 0 % 1001,9 hPa 0,0 l/m 7,2 km/h (2 Bft) 0 min 0 min 18,5 km/h (3 Bft)
27.10.2012 04:36 16,9 C 1,3 C 0,0 UV-I 0,0 C 46 % 84 % 0 % 1001,9 hPa 0,0 l/m 7,6 km/h (2 Bft) 0 min 0 min 14,9 km/h (3 Bft)
27.10.2012 04:38 16,9 C 1,3 C 0,0 UV-I 0,0 C 46 % 84 % 0 % 1001,9 hPa 0,0 l/m 8,4 km/h (2 Bft) 0 min 0 min 14,5 km/h (3 Bft)
27.10.2012 04:40 16,9 C 1,3 C 0,0 UV-I 0,0 C 46 % 84 % 0 % 1001,9 hPa 0,0 l/m 8,4 km/h (2 Bft) 0 min 0 min 20,1 km/h (4 Bft)
27.10.2012 04:42 16,8 C 1,3 C 0,0 UV-I 0,0 C 46 % 84 % 0 % 1001,9 hPa 0,0 l/m 8,4 km/h (2 Bft) 0 min 0 min 9,2 km/h (2 Bft)
27.10.2012 04:44 16,8 C 1,2 C 0,0 UV-I 0,0 C 46 % 84 % 0 % 1001,9 hPa 0,0 l/m 8,4 km/h (2 Bft) 0 min 0 min 9,2 km/h (2 Bft)
27.10.2012 04:46 16,8 C 1,2 C 0,0 UV-I 0,0 C 46 % 84 % 0 % 1001,9 hPa 0,0 l/m 7,6 km/h (2 Bft) 0 min 0 min 8,0 km/h (2 Bft)
27.10.2012 04:48 16,8 C 1,2 C 0,0 UV-I 0,0 C 46 % 84 % 0 % 1001,9 hPa 0,0 l/m 7,6 km/h (2 Bft) 0 min 0 min 8,8 km/h (2 Bft)
27.10.2012 04:50 16,8 C 1,2 C 0,0 UV-I 0,0 C 46 % 84 % 0 % 1001,9 hPa 0,0 l/m 7,2 km/h (2 Bft) 0 min 0 min 8,0 km/h (2 Bft)
27.10.2012 04:52 16,8 C 1,3 C 0,0 UV-I 0,0 C 46 % 84 % 0 % 1001,9 hPa 0,0 l/m 6,8 km/h (2 Bft) 0 min 0 min 12,0 km/h (2 Bft)
27.10.2012 04:54 16,8 C 1,2 C 0,0 UV-I 0,0 C 46 % 85 % 0 % 1001,9 hPa 0,0 l/m 7,6 km/h (2 Bft) 0 min 0 min 9,2 km/h (2 Bft)
27.10.2012 04:56 16,8 C 1,2 C 0,0 UV-I 0,0 C 46 % 85 % 0 % 1001,9 hPa 0,0 l/m 8,4 km/h (2 Bft) 0 min 0 min 10,0 km/h (2 Bft)
27.10.2012 04:58 16,8 C 1,2 C 0,0 UV-I 0,0 C 46 % 85 % 0 % 1001,9 hPa 0,0 l/m 8,8 km/h (2 Bft) 0 min 0 min 15,3 km/h (3 Bft)
27.10.2012 05:00 16,8 C 1,1 C 0,0 UV-I 0,0 C 46 % 85 % 0 % 1001,9 hPa 0,0 l/m 8,4 km/h (2 Bft) 0 min 0 min 11,6 km/h (2 Bft)
27.10.2012 05:02 16,8 C 1,1 C 0,0 UV-I 0,0 C 46 % 85 % 0 % 1001,9 hPa 0,0 l/m 8,8 km/h (2 Bft) 0 min 0 min 8,4 km/h (2 Bft)
27.10.2012 05:04 16,8 C 1,1 C 0,0 UV-I 0,0 C 46 % 85 % 0 % 1001,9 hPa 0,0 l/m 8,8 km/h (2 Bft) 0 min 0 min 8,4 km/h (2 Bft)
27.10.2012 05:06 16,8 C 1,1 C 0,0 UV-I 0,0 C 46 % 85 % 0 % 1002,4 hPa 0,0 l/m 8,8 km/h (2 Bft) 0 min 0 min 9,6 km/h (2 Bft)
27.10.2012 05:08 16,8 C 1,0 C 0,0 UV-I 0,0 C 46 % 85 % 0 % 1002,4 hPa 0,0 l/m 8,4 km/h (2 Bft) 0 min 0 min 5,2 km/h (1 Bft)
27.10.2012 05:10 16,8 C 1,0 C 0,0 UV-I 0,0 C 46 % 85 % 0 % 1002,4 hPa 0,0 l/m 8,4 km/h (2 Bft) 0 min 0 min 12,0 km/h (2 Bft)
27.10.2012 05:12 16,8 C 1,1 C 0,0 UV-I 0,0 C 46 % 85 % 0 % 1002,4 hPa 0,0 l/m 8,4 km/h (2 Bft) 0 min 0 min 11,6 km/h (2 Bft)
27.10.2012 05:14 16,8 C 1,1 C 0,0 UV-I 0,0 C 46 % 85 % 0 % 1002,4 hPa 0,0 l/m 9,2 km/h (2 Bft) 0 min 0 min 12,8 km/h (3 Bft)
27.10.2012 05:16 16,8 C 1,1 C 0,0 UV-I 0,0 C 45 % 85 % 0 % 1002,4 hPa 0,0 l/m 8,0 km/h (2 Bft) 0 min 0 min 9,6 km/h (2 Bft)
27.10.2012 05:18 16,8 C 0,9 C 0,0 UV-I 0,0 C 46 % 85 % 0 % 1002,4 hPa 0,0 l/m 8,0 km/h (2 Bft) 0 min 0 min 8,4 km/h (2 Bft)
27.10.2012 05:20 16,7 C 0,9 C 0,0 UV-I 0,0 C 45 % 85 % 0 % 1002,4 hPa 0,0 l/m 8,0 km/h (2 Bft) 0 min 0 min 8,0 km/h (2 Bft)
27.10.2012 05:22 16,8 C 0,9 C 0,0 UV-I 0,0 C 45 % 85 % 0 % 1002,4 hPa 0,0 l/m 8,0 km/h (2 Bft) 0 min 0 min 10,0 km/h (2 Bft)
27.10.2012 05:24 16,8 C 0,9 C 0,0 UV-I 0,0 C 45 % 85 % 0 % 1002,4 hPa 0,0 l/m 8,0 km/h (2 Bft) 0 min 0 min 10,0 km/h (2 Bft)
27.10.2012 05:26 16,8 C 0,9 C 0,0 UV-I 0,0 C 46 % 85 % 0 % 1002,4 hPa 0,0 l/m 6,8 km/h (2 Bft) 0 min 0 min 7,2 km/h (2 Bft)
27.10.2012 05:28 16,7 C 0,8 C 0,0 UV-I 0,0 C 45 % 85 % 0 % 1002,4 hPa 0,0 l/m 6,8 km/h (2 Bft) 0 min 0 min 10,8 km/h (2 Bft)
27.10.2012 05:30 16,7 C 0,8 C 0,0 UV-I 0,0 C 46 % 85 % 0 % 1002,4 hPa 0,0 l/m 7,2 km/h (2 Bft) 0 min 0 min 8,8 km/h (2 Bft)
27.10.2012 05:32 16,7 C 0,8 C 0,0 UV-I 0,0 C 46 % 85 % 0 % 1002,4 hPa 0,0 l/m 7,6 km/h (2 Bft) 0 min 0 min 9,6 km/h (2 Bft)
27.10.2012 05:34 16,7 C 0,8 C 0,0 UV-I 0,0 C 45 % 85 % 0 % 1002,4 hPa 0,0 l/m 7,6 km/h (2 Bft) 0 min 0 min 11,2 km/h (2 Bft)
27.10.2012 05:36 16,7 C 0,8 C 0,0 UV-I 0,0 C 45 % 85 % 0 % 1002,4 hPa 0,0 l/m 7,6 km/h (2 Bft) 0 min 0 min 15,7 km/h (3 Bft)
27.10.2012 05:38 16,8 C 0,8 C 0,0 UV-I 0,0 C 45 % 85 % 0 % 1002,4 hPa 0,0 l/m 8,4 km/h (2 Bft) 0 min 0 min 11,6 km/h (2 Bft)
27.10.2012 05:40 16,7 C 0,8 C 0,0 UV-I 0,0 C 45 % 85 % 0 % 1002,4 hPa 0,0 l/m 8,4 km/h (2 Bft) 0 min 0 min 5,6 km/h (1 Bft)
27.10.2012 05:42 16,7 C 0,9 C 0,0 UV-I 0,0 C 45 % 85 % 0 % 1002,4 hPa 0,0 l/m 8,0 km/h (2 Bft) 0 min 0 min 0,0 km/h (0 Bft)
27.10.2012 05:44 16,7 C 0,8 C 0,0 UV-I 0,0 C 45 % 85 % 0 % 1002,4 hPa 0,0 l/m 8,0 km/h (2 Bft) 0 min 0 min 0,0 km/h (0 Bft)
27.10.2012 05:46 16,7 C 0,8 C 0,0 UV-I 0,0 C 45 % 85 % 0 % 1002,2 hPa 0,0 l/m 7,2 km/h (2 Bft) 0 min 0 min 5,6 km/h (1 Bft)
27.10.2012 05:48 16,7 C 0,9 C 0,0 UV-I 0,0 C 46 % 85 % 0 % 1002,2 hPa 0,0 l/m 6,8 km/h (2 Bft) 0 min 0 min 9,6 km/h (2 Bft)
27.10.2012 05:50 16,7 C 0,9 C 0,0 UV-I 0,0 C 45 % 85 % 0 % 1002,2 hPa 0,0 l/m 6,4 km/h (2 Bft) 0 min 0 min 15,7 km/h (3 Bft)
27.10.2012 05:52 16,7 C 0,9 C 0,0 UV-I 0,0 C 45 % 85 % 0 % 1002,2 hPa 0,0 l/m 6,8 km/h (2 Bft) 0 min 0 min 12,4 km/h (3 Bft)
27.10.2012 05:54 16,7 C 0,8 C 0,0 UV-I 0,0 C 45 % 85 % 0 % 1002,2 hPa 0,0 l/m 8,0 km/h (2 Bft) 0 min 0 min 14,9 km/h (3 Bft)
27.10.2012 05:56 16,7 C 0,8 C 0,0 UV-I 0,0 C 45 % 85 % 0 % 1002,2 hPa 0,0 l/m 8,4 km/h (2 Bft) 0 min 0 min 9,2 km/h (2 Bft)
27.10.2012 05:58 16,7 C 0,8 C 0,0 UV-I 0,0 C 45 % 85 % 0 % 1002,2 hPa 0,0 l/m 8,4 km/h (2 Bft) 0 min 0 min 10,0 km/h (2 Bft)
27.10.2012 06:00 16,7 C 0,8 C 0,0 UV-I 0,0 C 45 % 85 % 0 % 1002,2 hPa 0,0 l/m 9,2 km/h (2 Bft) 0 min 0 min 6,4 km/h (2 Bft)
27.10.2012 06:02 16,6 C 0,9 C 0,0 UV-I 0,0 C 45 % 85 % 0 % 1002,2 hPa 0,0 l/m 8,8 km/h (2 Bft) 0 min 0 min 13,7 km/h (3 Bft)
27.10.2012 06:04 16,6 C 0,8 C 0,0 UV-I 0,0 C 45 % 85 % 0 % 1002,2 hPa 0,0 l/m 8,8 km/h (2 Bft) 0 min 0 min 13,7 km/h (3 Bft)
27.10.2012 06:06 16,6 C 0,8 C 0,0 UV-I 0,0 C 45 % 85 % 0 % 1002,2 hPa 0,0 l/m 8,4 km/h (2 Bft) 0 min 0 min 12,8 km/h (3 Bft)
27.10.2012 06:08 16,6 C 0,8 C 0,0 UV-I 0,0 C 45 % 84 % 0 % 1002,2 hPa 0,0 l/m 8,4 km/h (2 Bft) 0 min 0 min 6,4 km/h (2 Bft)
27.10.2012 06:10 16,6 C 0,8 C 0,0 UV-I 0,0 C 45 % 84 % 0 % 1002,2 hPa 0,0 l/m 8,8 km/h (2 Bft) 0 min 0 min 8,4 km/h (2 Bft)
27.10.2012 06:12 16,6 C 0,8 C 0,0 UV-I 0,0 C 45 % 84 % 0 % 1002,2 hPa 0,0 l/m 8,4 km/h (2 Bft) 0 min 0 min 9,6 km/h (2 Bft)
27.10.2012 06:14 16,6 C 0,7 C 0,0 UV-I 0,0 C 45 % 84 % 0 % 1002,2 hPa 0,0 l/m 8,4 km/h (2 Bft) 0 min 0 min 10,8 km/h (2 Bft)
27.10.2012 06:16 16,6 C 0,8 C 0,0 UV-I 0,0 C 45 % 84 % 0 % 1002,2 hPa 0,0 l/m 8,4 km/h (2 Bft) 0 min 0 min 13,7 km/h (3 Bft)
27.10.2012 06:18 16,6 C 0,8 C 0,0 UV-I 0,0 C 45 % 84 % 0 % 1002,2 hPa 0,0 l/m 8,8 km/h (2 Bft) 0 min 0 min 10,4 km/h (2 Bft)
27.10.2012 06:20 16,6 C 0,7 C 0,0 UV-I 0,0 C 45 % 84 % 0 % 1002,2 hPa 0,0 l/m 8,8 km/h (2 Bft) 0 min 0 min 9,2 km/h (2 Bft)
27.10.2012 06:22 16,6 C 0,7 C 0,0 UV-I 0,0 C 45 % 84 % 0 % 1002,2 hPa 0,0 l/m 8,4 km/h (2 Bft) 0 min 0 min 9,2 km/h (2 Bft)
27.10.2012 06:24 16,6 C 0,7 C 0,0 UV-I 0,0 C 45 % 84 % 0 % 1002,2 hPa 0,0 l/m 8,4 km/h (2 Bft) 0 min 0 min 9,2 km/h (2 Bft)
27.10.2012 06:26 16,6 C 0,7 C 0,0 UV-I 0,0 C 45 % 84 % 0 % 1002,3 hPa 0,0 l/m 9,2 km/h (2 Bft) 0 min 0 min 14,5 km/h (3 Bft)
27.10.2012 06:28 16,6 C 0,7 C 0,0 UV-I 0,0 C 45 % 84 % 0 % 1002,3 hPa 0,0 l/m 8,8 km/h (2 Bft) 0 min 0 min 6,0 km/h (2 Bft)
27.10.2012 06:30 16,6 C 0,7 C 0,0 UV-I 0,0 C 45 % 84 % 0 % 1002,3 hPa 0,0 l/m 8,8 km/h (2 Bft) 0 min 0 min 9,6 km/h (2 Bft)
27.10.2012 06:32 16,6 C 0,7 C 0,0 UV-I 0,0 C 45 % 84 % 0 % 1002,3 hPa 0,0 l/m 9,2 km/h (2 Bft) 0 min 0 min 10,0 km/h (2 Bft)
27.10.2012 06:34 16,6 C 0,7 C 0,0 UV-I 0,0 C 45 % 83 % 0 % 1002,3 hPa 0,0 l/m 9,6 km/h (2 Bft) 0 min 0 min 15,7 km/h (3 Bft)
27.10.2012 06:36 16,6 C 0,7 C 0,0 UV-I 0,0 C 45 % 83 % 0 % 1002,3 hPa 0,0 l/m 8,8 km/h (2 Bft) 0 min 0 min 5,2 km/h (1 Bft)
27.10.2012 06:38 16,6 C 0,7 C 0,0 UV-I 0,0 C 45 % 83 % 0 % 1002,3 hPa 0,0 l/m 8,4 km/h (2 Bft) 0 min 0 min 8,4 km/h (2 Bft)
27.10.2012 06:40 16,6 C 0,7 C 0,0 UV-I 0,0 C 45 % 83 % 0 % 1002,3 hPa 0,0 l/m 8,4 km/h (2 Bft) 0 min 0 min 8,8 km/h (2 Bft)
27.10.2012 06:42 16,6 C 0,7 C 0,0 UV-I 0,0 C 45 % 83 % 0 % 1002,3 hPa 0,0 l/m 8,0 km/h (2 Bft) 0 min 0 min 8,4 km/h (2 Bft)
27.10.2012 06:44 16,5 C 0,7 C 0,0 UV-I 0,0 C 45 % 83 % 0 % 1002,3 hPa 0,0 l/m 8,0 km/h (2 Bft) 0 min 0 min 8,4 km/h (2 Bft)
27.10.2012 06:46 16,5 C 0,7 C 0,0 UV-I 0,0 C 45 % 83 % 0 % 1002,6 hPa 0,0 l/m 7,6 km/h (2 Bft) 0 min 0 min 12,0 km/h (2 Bft)
27.10.2012 06:48 16,5 C 0,7 C 0,0 UV-I 0,0 C 45 % 83 % 0 % 1002,6 hPa 0,0 l/m 7,2 km/h (2 Bft) 0 min 0 min 6,8 km/h (2 Bft)
27.10.2012 06:50 16,5 C 0,6 C 0,0 UV-I 0,0 C 45 % 83 % 0 % 1002,6 hPa 0,0 l/m 7,6 km/h (2 Bft) 0 min 0 min 10,0 km/h (2 Bft)
27.10.2012 06:52 16,5 C 0,7 C 0,0 UV-I 0,0 C 45 % 83 % 0 % 1002,6 hPa 0,0 l/m 7,6 km/h (2 Bft) 0 min 0 min 12,8 km/h (3 Bft)
27.10.2012 06:54 16,5 C 0,7 C 0,0 UV-I 0,0 C 45 % 83 % 0 % 1002,6 hPa 0,0 l/m 7,6 km/h (2 Bft) 0 min 0 min 8,4 km/h (2 Bft)
27.10.2012 06:56 16,5 C 0,7 C 0,0 UV-I 0,0 C 45 % 83 % 0 % 1002,6 hPa 0,0 l/m 7,2 km/h (2 Bft) 0 min 0 min 6,0 km/h (2 Bft)
27.10.2012 06:58 16,5 C 0,7 C 0,0 UV-I 0,0 C 45 % 82 % 0 % 1002,6 hPa 0,0 l/m 7,6 km/h (2 Bft) 0 min 0 min 17,3 km/h (3 Bft)
27.10.2012 07:00 16,5 C 0,7 C 0,0 UV-I 0,0 C 45 % 82 % 0 % 1002,6 hPa 0,0 l/m 8,0 km/h (2 Bft) 0 min 0 min 8,0 km/h (2 Bft)
27.10.2012 07:02 16,5 C 0,6 C 0,0 UV-I 0,0 C 45 % 82 % 0 % 1002,6 hPa 0,0 l/m 8,4 km/h (2 Bft) 0 min 0 min 19,3 km/h (3 Bft)
27.10.2012 07:04 16,5 C 0,7 C 0,0 UV-I 0,0 C 45 % 82 % 0 % 1002,6 hPa 0,0 l/m 8,4 km/h (2 Bft) 0 min 0 min 19,3 km/h (3 Bft)
27.10.2012 07:06 16,5 C 0,6 C 0,0 UV-I 0,0 C 45 % 82 % 0 % 1002,8 hPa 0,0 l/m 10,0 km/h (2 Bft) 0 min 0 min 12,4 km/h (3 Bft)
27.10.2012 07:08 16,5 C 0,7 C 0,0 UV-I 0,0 C 45 % 82 % 0 % 1002,8 hPa 0,0 l/m 10,8 km/h (2 Bft) 0 min 0 min 10,8 km/h (2 Bft)
27.10.2012 07:10 16,5 C 0,6 C 0,0 UV-I 0,0 C 45 % 82 % 0 % 1002,8 hPa 0,0 l/m 10,8 km/h (2 Bft) 0 min 0 min 13,7 km/h (3 Bft)
27.10.2012 07:12 16,5 C 0,6 C 0,0 UV-I 0,0 C 45 % 82 % 0 % 1002,8 hPa 0,0 l/m 10,8 km/h (2 Bft) 0 min 0 min 12,8 km/h (3 Bft)
27.10.2012 07:14 16,5 C 0,7 C 0,0 UV-I 0,0 C 45 % 82 % 0 % 1002,8 hPa 0,0 l/m 10,4 km/h (2 Bft) 0 min 0 min 16,1 km/h (3 Bft)
27.10.2012 07:16 16,5 C 0,7 C 0,0 UV-I 0,0 C 45 % 82 % 0 % 1002,8 hPa 0,0 l/m 10,0 km/h (2 Bft) 0 min 0 min 10,8 km/h (2 Bft)
27.10.2012 07:18 16,4 C 0,7 C 0,0 UV-I 0,0 C 45 % 82 % 0 % 1002,8 hPa 0,0 l/m 10,0 km/h (2 Bft) 0 min 0 min 12,0 km/h (2 Bft)
27.10.2012 07:20 16,4 C 0,7 C 0,0 UV-I 0,0 C 45 % 82 % 0 % 1002,8 hPa 0,0 l/m 9,2 km/h (2 Bft) 0 min 0 min 4,4 km/h (1 Bft)
27.10.2012 07:22 16,4 C 0,7 C 0,0 UV-I 0,0 C 45 % 82 % 0 % 1002,8 hPa 0,0 l/m 8,8 km/h (2 Bft) 0 min 0 min 9,2 km/h (2 Bft)
27.10.2012 07:24 16,4 C 0,7 C 0,0 UV-I 0,0 C 45 % 82 % 0 % 1002,8 hPa 0,0 l/m 8,8 km/h (2 Bft) 0 min 0 min 9,2 km/h (2 Bft)
27.10.2012 07:26 16,4 C 0,5 C 0,0 UV-I 0,0 C 45 % 81 % 0 % 1003,0 hPa 0,0 l/m 8,0 km/h (2 Bft) 0 min 0 min 7,6 km/h (2 Bft)
27.10.2012 07:28 16,4 C 0,5 C 0,0 UV-I 0,0 C 45 % 81 % 0 % 1003,0 hPa 0,0 l/m 8,0 km/h (2 Bft) 0 min 0 min 11,6 km/h (2 Bft)
27.10.2012 07:30 16,4 C 0,5 C 0,0 UV-I 0,0 C 45 % 81 % 0 % 1003,0 hPa 0,0 l/m 8,4 km/h (2 Bft) 0 min 0 min 13,7 km/h (3 Bft)
27.10.2012 07:32 16,4 C 0,4 C 0,0 UV-I 0,0 C 45 % 81 % 0 % 1003,0 hPa 0,0 l/m 8,4 km/h (2 Bft) 0 min 0 min 10,0 km/h (2 Bft)
27.10.2012 07:34 16,4 C 0,4 C 0,0 UV-I 0,0 C 45 % 81 % 0 % 1003,0 hPa 0,0 l/m 8,4 km/h (2 Bft) 0 min 0 min 10,4 km/h (2 Bft)
27.10.2012 07:36 16,4 C 0,4 C 0,0 UV-I 0,0 C 45 % 81 % 0 % 1003,0 hPa 0,0 l/m 8,4 km/h (2 Bft) 0 min 0 min 8,4 km/h (2 Bft)
27.10.2012 07:38 16,4 C 0,4 C 0,0 UV-I 0,0 C 45 % 81 % 0 % 1003,0 hPa 0,0 l/m 8,4 km/h (2 Bft) 0 min 0 min 13,7 km/h (3 Bft)
27.10.2012 07:40 16,4 C 0,4 C 0,0 UV-I 0,0 C 45 % 81 % 0 % 1003,0 hPa 0,0 l/m 7,6 km/h (2 Bft) 0 min 0 min 7,6 km/h (2 Bft)
27.10.2012 07:42 16,4 C 0,3 C 0,0 UV-I 0,0 C 44 % 82 % 0 % 1003,0 hPa 0,0 l/m 6,8 km/h (2 Bft) 0 min 0 min 8,4 km/h (2 Bft)
27.10.2012 07:44 16,4 C 0,3 C 0,0 UV-I 0,0 C 44 % 82 % 0 % 1003,0 hPa 0,0 l/m 6,8 km/h (2 Bft) 0 min 0 min 8,4 km/h (2 Bft)
27.10.2012 07:46 16,4 C 0,3 C 0,0 UV-I 0,0 C 44 % 82 % 0 % 1003,2 hPa 0,0 l/m 6,0 km/h (2 Bft) 0 min 0 min 9,6 km/h (2 Bft)
27.10.2012 07:48 16,4 C 0,3 C 0,0 UV-I 0,0 C 45 % 82 % 0 % 1003,2 hPa 0,0 l/m 5,6 km/h (1 Bft) 0 min 0 min 5,2 km/h (1 Bft)
27.10.2012 07:50 16,4 C 0,3 C 0,0 UV-I 0,0 C 45 % 82 % 0 % 1003,2 hPa 0,0 l/m 5,6 km/h (1 Bft) 0 min 0 min 12,4 km/h (3 Bft)
27.10.2012 07:52 16,4 C 0,2 C 0,0 UV-I 0,0 C 44 % 82 % 0 % 1003,2 hPa 0,0 l/m 5,6 km/h (1 Bft) 0 min 0 min 4,0 km/h (1 Bft)
27.10.2012 07:54 16,4 C 0,1 C 0,0 UV-I 0,0 C 44 % 82 % 0 % 1003,2 hPa 0,0 l/m 6,8 km/h (2 Bft) 0 min 0 min 12,4 km/h (3 Bft)
27.10.2012 07:56 16,4 C 0,1 C 0,0 UV-I 0,0 C 44 % 82 % 0 % 1003,2 hPa 0,0 l/m 6,8 km/h (2 Bft) 0 min 0 min 5,2 km/h (1 Bft)
27.10.2012 07:58 16,4 C 0,0 C 0,0 UV-I 0,0 C 44 % 82 % 0 % 1003,2 hPa 0,0 l/m 6,0 km/h (2 Bft) 0 min 0 min 0,0 km/h (0 Bft)
27.10.2012 08:00 16,4 C 0,0 C 0,0 UV-I 0,0 C 44 % 82 % 0 % 1003,2 hPa 0,0 l/m 6,0 km/h (2 Bft) 0 min 0 min 5,2 km/h (1 Bft)
27.10.2012 08:02 16,4 C 0,0 C 0,0 UV-I 0,0 C 44 % 82 % 0 % 1003,2 hPa 0,0 l/m 5,6 km/h (1 Bft) 0 min 0 min 9,6 km/h (2 Bft)
27.10.2012 08:04 16,4 C -0,1 C 0,0 UV-I 0,0 C 44 % 82 % 0 % 1003,2 hPa 0,0 l/m 5,6 km/h (1 Bft) 0 min 0 min 9,6 km/h (2 Bft)
27.10.2012 08:06 16,4 C -0,1 C 0,0 UV-I 0,0 C 44 % 82 % 0 % 1003,6 hPa 0,0 l/m 3,6 km/h (1 Bft) 0 min 0 min 7,6 km/h (2 Bft)
27.10.2012 08:08 16,4 C -0,1 C 0,0 UV-I 0,0 C 44 % 82 % 0 % 1003,6 hPa 0,0 l/m 3,6 km/h (1 Bft) 0 min 0 min 4,8 km/h (1 Bft)
27.10.2012 08:10 16,2 C -0,1 C 0,0 UV-I 0,0 C 44 % 82 % 0 % 1003,6 hPa 0,0 l/m 3,6 km/h (1 Bft) 0 min 0 min 7,6 km/h (2 Bft)
27.10.2012 08:12 16,2 C -0,1 C 0,0 UV-I 0,0 C 44 % 83 % 0 % 1003,6 hPa 0,0 l/m 3,2 km/h (1 Bft) 0 min 0 min 0,0 km/h (0 Bft)
27.10.2012 08:14 16,2 C -0,3 C 0,0 UV-I 0,0 C 44 % 83 % 0 % 1003,6 hPa 0,0 l/m 3,6 km/h (1 Bft) 0 min 0 min 9,2 km/h (2 Bft)
27.10.2012 08:16 16,3 C -0,3 C 0,0 UV-I 0,0 C 44 % 83 % 0 % 1003,6 hPa 0,0 l/m 3,6 km/h (1 Bft) 0 min 0 min 0,0 km/h (0 Bft)
27.10.2012 08:18 16,3 C -0,3 C 0,0 UV-I 0,0 C 44 % 83 % 0 % 1003,6 hPa 0,0 l/m 3,2 km/h (1 Bft) 0 min 0 min 5,2 km/h (1 Bft)
27.10.2012 08:20 16,3 C -0,3 C 0,0 UV-I 0,0 C 44 % 83 % 0 % 1003,6 hPa 0,0 l/m 3,6 km/h (1 Bft) 0 min 0 min 4,8 km/h (1 Bft)
27.10.2012 08:22 16,2 C -0,3 C 0,0 UV-I 0,0 C 44 % 84 % 0 % 1003,6 hPa 0,0 l/m 4,0 km/h (1 Bft) 0 min 0 min 7,2 km/h (2 Bft)
27.10.2012 08:24 16,2 C -0,3 C 0,0 UV-I 0,0 C 44 % 84 % 0 % 1003,6 hPa 0,0 l/m 4,0 km/h (1 Bft) 0 min 0 min 7,2 km/h (2 Bft)
27.10.2012 08:26 16,2 C -0,3 C 0,0 UV-I 0,0 C 44 % 84 % 0 % 1003,9 hPa 0,0 l/m 5,2 km/h (1 Bft) 0 min 0 min 6,0 km/h (2 Bft)
27.10.2012 08:28 16,2 C -0,3 C 0,0 UV-I 0,0 C 44 % 84 % 0 % 1003,9 hPa 0,0 l/m 6,0 km/h (2 Bft) 0 min 0 min 8,8 km/h (2 Bft)
27.10.2012 08:30 16,2 C -0,3 C 0,0 UV-I 0,0 C 44 % 84 % 0 % 1003,9 hPa 0,0 l/m 6,8 km/h (2 Bft) 0 min 0 min 11,6 km/h (2 Bft)
27.10.2012 08:32 16,2 C -0,3 C 0,0 UV-I 0,0 C 44 % 84 % 0 % 1003,9 hPa 0,0 l/m 6,8 km/h (2 Bft) 0 min 0 min 6,4 km/h (2 Bft)
27.10.2012 08:34 16,2 C -0,3 C 0,0 UV-I 0,0 C 44 % 84 % 0 % 1003,9 hPa 0,0 l/m 6,0 km/h (2 Bft) 0 min 0 min 7,2 km/h (2 Bft)
27.10.2012 08:36 16,2 C -0,3 C 0,0 UV-I 0,0 C 44 % 84 % 0 % 1003,9 hPa 0,0 l/m 6,4 km/h (2 Bft) 0 min 0 min 9,6 km/h (2 Bft)
27.10.2012 08:38 16,2 C -0,3 C 0,0 UV-I 0,0 C 44 % 84 % 0 % 1003,9 hPa 0,0 l/m 5,6 km/h (1 Bft) 0 min 0 min 0,0 km/h (0 Bft)
27.10.2012 08:40 16,2 C -0,3 C 0,0 UV-I 0,0 C 44 % 84 % 0 % 1003,9 hPa 0,0 l/m 4,8 km/h (1 Bft) 0 min 0 min 5,6 km/h (1 Bft)
27.10.2012 08:42 16,2 C -0,3 C 0,0 UV-I 0,0 C 44 % 84 % 0 % 1003,9 hPa 0,0 l/m 4,4 km/h (1 Bft) 0 min 0 min 6,4 km/h (2 Bft)
27.10.2012 08:44 16,2 C -0,3 C 0,0 UV-I 0,0 C 44 % 84 % 0 % 1003,9 hPa 0,0 l/m 4,4 km/h (1 Bft) 0 min 0 min 6,4 km/h (2 Bft)
27.10.2012 08:46 16,2 C -0,3 C 0,0 UV-I 0,0 C 44 % 84 % 0 % 1004,1 hPa 0,0 l/m 2,4 km/h (1 Bft) 0 min 0 min 0,0 km/h (0 Bft)
27.10.2012 08:48 16,2 C -0,4 C 0,0 UV-I 0,0 C 44 % 84 % 0 % 1004,1 hPa 0,0 l/m 1,6 km/h (1 Bft) 0 min 0 min 0,0 km/h (0 Bft)
27.10.2012 08:50 16,2 C -0,4 C 0,0 UV-I 0,0 C 44 % 84 % 0 % 1004,1 hPa 0,0 l/m 1,2 km/h (1 Bft) 0 min 0 min 0,0 km/h (0 Bft)
27.10.2012 08:52 16,2 C -0,4 C 0,0 UV-I 0,0 C 44 % 84 % 0 % 1004,1 hPa 0,0 l/m 0,8 km/h (0 Bft) 0 min 0 min 0,0 km/h (0 Bft)
27.10.2012 08:54 16,2 C -0,4 C 0,0 UV-I 0,0 C 44 % 84 % 0 % 1004,1 hPa 0,0 l/m 1,2 km/h (1 Bft) 0 min 0 min 7,2 km/h (2 Bft)
27.10.2012 08:56 16,1 C -0,5 C 0,0 UV-I 0,0 C 44 % 83 % 0 % 1004,1 hPa 0,0 l/m 1,2 km/h (1 Bft) 0 min 0 min 5,6 km/h (1 Bft)
27.10.2012 08:58 16,1 C -0,5 C 0,0 UV-I 0,0 C 44 % 83 % 0 % 1004,1 hPa 0,0 l/m 2,0 km/h (1 Bft) 0 min 0 min 8,0 km/h (2 Bft)
27.10.2012 09:00 16,1 C -0,5 C 0,0 UV-I 0,0 C 44 % 84 % 0 % 1004,1 hPa 0,0 l/m 2,4 km/h (1 Bft) 0 min 0 min 8,0 km/h (2 Bft)
27.10.2012 09:02 15,9 C -0,3 C 0,0 UV-I 0,0 C 43 % 84 % 0 % 1004,1 hPa 0,0 l/m 4,0 km/h (1 Bft) 0 min 0 min 7,6 km/h (2 Bft)
27.10.2012 09:04 15,9 C -0,4 C 0,0 UV-I 0,0 C 43 % 84 % 0 % 1004,1 hPa 0,0 l/m 4,0 km/h (1 Bft) 0 min 0 min 7,6 km/h (2 Bft)
27.10.2012 09:06 16,0 C -0,5 C 0,0 UV-I 0,0 C 43 % 84 % 0 % 1004,2 hPa 0,0 l/m 4,0 km/h (1 Bft) 0 min 0 min 9,6 km/h (2 Bft)
27.10.2012 09:08 16,0 C -0,4 C 0,0 UV-I 0,0 C 43 % 84 % 0 % 1004,2 hPa 0,0 l/m 4,4 km/h (1 Bft) 0 min 0 min 4,8 km/h (1 Bft)
27.10.2012 09:10 16,0 C -0,4 C 0,0 UV-I 0,0 C 43 % 84 % 0 % 1004,2 hPa 0,0 l/m 4,8 km/h (1 Bft) 0 min 0 min 7,6 km/h (2 Bft)
27.10.2012 09:12 15,8 C -0,4 C 0,0 UV-I 0,0 C 43 % 84 % 0 % 1004,2 hPa 0,0 l/m 5,6 km/h (1 Bft) 0 min 0 min 7,2 km/h (2 Bft)
27.10.2012 09:14 15,9 C -0,4 C 0,0 UV-I 0,0 C 43 % 84 % 0 % 1004,2 hPa 0,0 l/m 5,6 km/h (1 Bft) 0 min 0 min 9,2 km/h (2 Bft)
27.10.2012 09:16 15,9 C -0,3 C 0,0 UV-I 0,0 C 43 % 84 % 0 % 1004,2 hPa 0,0 l/m 6,4 km/h (2 Bft) 0 min 0 min 9,6 km/h (2 Bft)
27.10.2012 09:18 15,9 C -0,1 C 0,0 UV-I 0,0 C 43 % 84 % 0 % 1004,2 hPa 0,0 l/m 5,6 km/h (1 Bft) 0 min 0 min 4,0 km/h (1 Bft)
27.10.2012 09:20 15,8 C -0,1 C 0,0 UV-I 0,0 C 43 % 84 % 0 % 1004,2 hPa 0,0 l/m 5,2 km/h (1 Bft) 0 min 0 min 0,0 km/h (0 Bft)
27.10.2012 09:22 15,8 C -0,1 C 0,0 UV-I 0,0 C 43 % 84 % 0 % 1004,2 hPa 0,0 l/m 4,8 km/h (1 Bft) 0 min 0 min 5,2 km/h (1 Bft)
27.10.2012 09:24 15,8 C -0,1 C 0,0 UV-I 0,0 C 43 % 84 % 0 % 1004,2 hPa 0,0 l/m 4,8 km/h (1 Bft) 0 min 0 min 5,2 km/h (1 Bft)
27.10.2012 09:26 15,8 C -0,1 C 0,0 UV-I 0,0 C 43 % 84 % 0 % 1004,5 hPa 0,0 l/m 5,2 km/h (1 Bft) 0 min 0 min 13,7 km/h (3 Bft)
27.10.2012 09:28 15,8 C -0,1 C 0,0 UV-I 0,0 C 43 % 84 % 0 % 1004,5 hPa 0,0 l/m 5,6 km/h (1 Bft) 0 min 0 min 10,8 km/h (2 Bft)
27.10.2012 09:30 15,6 C 0,1 C 0,0 UV-I 0,0 C 43 % 84 % 0 % 1004,5 hPa 0,0 l/m 6,4 km/h (2 Bft) 0 min 0 min 8,8 km/h (2 Bft)
27.10.2012 09:32 15,6 C 0,0 C 0,0 UV-I 0,0 C 43 % 84 % 0 % 1004,5 hPa 0,0 l/m 6,8 km/h (2 Bft) 0 min 0 min 14,5 km/h (3 Bft)
27.10.2012 09:34 15,7 C 0,1 C 0,0 UV-I 0,0 C 43 % 84 % 0 % 1004,5 hPa 0,0 l/m 7,2 km/h (2 Bft) 0 min 0 min 10,0 km/h (2 Bft)
27.10.2012 09:36 15,7 C 0,3 C 0,0 UV-I 0,0 C 43 % 84 % 0 % 1004,5 hPa 0,0 l/m 7,6 km/h (2 Bft) 0 min 0 min 14,1 km/h (3 Bft)
27.10.2012 09:38 15,6 C 0,1 C 0,0 UV-I 0,0 C 43 % 84 % 0 % 1004,5 hPa 0,0 l/m 8,4 km/h (2 Bft) 0 min 0 min 13,7 km/h (3 Bft)
27.10.2012 09:40 15,6 C 0,2 C 0,0 UV-I 0,0 C 42 % 84 % 0 % 1004,5 hPa 0,0 l/m 8,4 km/h (2 Bft) 0 min 0 min 10,8 km/h (2 Bft)
27.10.2012 09:42 15,6 C 0,3 C 0,0 UV-I 0,0 C 42 % 84 % 0 % 1004,5 hPa 0,0 l/m 8,8 km/h (2 Bft) 0 min 0 min 8,0 km/h (2 Bft)
27.10.2012 09:44 15,6 C 0,3 C 0,0 UV-I 0,0 C 43 % 84 % 0 % 1004,5 hPa 0,0 l/m 8,8 km/h (2 Bft) 0 min 0 min 8,0 km/h (2 Bft)
27.10.2012 09:46 15,6 C 0,2 C 0,0 UV-I 0,0 C 43 % 84 % 0 % 1004,8 hPa 0,0 l/m 7,6 km/h (2 Bft) 0 min 0 min 7,2 km/h (2 Bft)
27.10.2012 09:48 15,6 C 0,3 C 0,0 UV-I 0,0 C 43 % 84 % 0 % 1004,8 hPa 0,0 l/m 7,6 km/h (2 Bft) 0 min 0 min 9,6 km/h (2 Bft)
27.10.2012 09:50 15,6 C 0,4 C 0,0 UV-I 0,0 C 42 % 84 % 0 % 1004,8 hPa 0,0 l/m 7,2 km/h (2 Bft) 0 min 0 min 11,6 km/h (2 Bft)
27.10.2012 09:52 15,6 C 0,5 C 0,0 UV-I 0,0 C 43 % 84 % 0 % 1004,8 hPa 0,0 l/m 7,2 km/h (2 Bft) 0 min 0 min 5,6 km/h (1 Bft)
27.10.2012 09:54 15,6 C 0,5 C 0,0 UV-I 0,0 C 42 % 84 % 0 % 1004,8 hPa 0,0 l/m 8,8 km/h (2 Bft) 0 min 0 min 20,9 km/h (4 Bft)
27.10.2012 09:56 15,4 C 0,5 C 0,0 UV-I 0,7 C 42 % 83 % 20 % 1004,8 hPa 0,0 l/m 9,6 km/h (2 Bft) 0 min 0 min 12,0 km/h (2 Bft)
27.10.2012 09:58 15,4 C 0,5 C 0,0 UV-I 1,8 C 42 % 83 % 51 % 1004,8 hPa 0,0 l/m 9,2 km/h (2 Bft) 0 min 0 min 6,8 km/h (2 Bft)
27.10.2012 10:00 15,5 C 0,7 C 0,0 UV-I 2,9 C 42 % 83 % 83 % 1004,8 hPa 0,0 l/m 8,4 km/h (2 Bft) 2 min 0 min 10,0 km/h (2 Bft)
27.10.2012 10:02 15,5 C 0,7 C 0,0 UV-I 3,7 C 42 % 83 % 100 % 1004,8 hPa 0,0 l/m 8,0 km/h (2 Bft) 2 min 0 min 8,8 km/h (2 Bft)
27.10.2012 10:04 15,5 C 0,8 C 0,0 UV-I 3,6 C 42 % 83 % 100 % 1004,8 hPa 0,0 l/m 8,0 km/h (2 Bft) 2 min 0 min 8,8 km/h (2 Bft)
27.10.2012 10:06 15,5 C 0,8 C 0,0 UV-I 4,0 C 42 % 82 % 100 % 1005,2 hPa 0,0 l/m 8,0 km/h (2 Bft) 2 min 0 min 15,3 km/h (3 Bft)
27.10.2012 10:08 15,5 C 0,8 C 0,0 UV-I 3,6 C 42 % 82 % 100 % 1005,2 hPa 0,0 l/m 8,4 km/h (2 Bft) 2 min 0 min 8,4 km/h (2 Bft)
27.10.2012 10:10 15,5 C 0,9 C 0,0 UV-I 3,3 C 42 % 82 % 94 % 1005,2 hPa 0,0 l/m 8,4 km/h (2 Bft) 2 min 0 min 5,2 km/h (1 Bft)
27.10.2012 10:12 15,5 C 0,9 C 0,0 UV-I 3,2 C 42 % 82 % 91 % 1005,2 hPa 0,0 l/m 8,0 km/h (2 Bft) 2 min 0 min 7,6 km/h (2 Bft)
27.10.2012 10:14 15,3 C 1,1 C 0,1 UV-I 2,6 C 42 % 82 % 74 % 1005,2 hPa 0,0 l/m 8,4 km/h (2 Bft) 2 min 0 min 9,6 km/h (2 Bft)
27.10.2012 10:16 15,3 C 0,9 C 0,1 UV-I 2,7 C 42 % 81 % 77 % 1005,2 hPa 0,0 l/m 8,0 km/h (2 Bft) 2 min 0 min 7,2 km/h (2 Bft)
27.10.2012 10:18 15,3 C 1,1 C 0,1 UV-I 2,5 C 42 % 82 % 71 % 1005,2 hPa 0,0 l/m 7,6 km/h (2 Bft) 2 min 0 min 18,5 km/h (3 Bft)
27.10.2012 10:20 15,3 C 1,1 C 0,1 UV-I 2,3 C 42 % 82 % 66 % 1005,2 hPa 0,0 l/m 8,4 km/h (2 Bft) 2 min 0 min 13,7 km/h (3 Bft)
27.10.2012 10:22 15,4 C 1,1 C 0,1 UV-I 2,8 C 42 % 81 % 80 % 1005,2 hPa 0,0 l/m 8,8 km/h (2 Bft) 2 min 0 min 4,8 km/h (1 Bft)
27.10.2012 10:24 15,4 C 1,2 C 0,1 UV-I 2,7 C 42 % 81 % 77 % 1005,2 hPa 0,0 l/m 8,8 km/h (2 Bft) 2 min 0 min 4,8 km/h (1 Bft)
27.10.2012 10:26 15,4 C 1,3 C 0,1 UV-I 4,4 C 42 % 82 % 100 % 1005,4 hPa 0,0 l/m 8,4 km/h (2 Bft) 2 min 0 min 7,2 km/h (2 Bft)
27.10.2012 10:28 15,4 C 1,3 C 0,1 UV-I 5,3 C 42 % 81 % 100 % 1005,4 hPa 0,0 l/m 8,0 km/h (2 Bft) 2 min 0 min 7,6 km/h (2 Bft)
27.10.2012 10:30 15,4 C 1,5 C 0,2 UV-I 5,7 C 42 % 81 % 100 % 1005,4 hPa 0,0 l/m 7,6 km/h (2 Bft) 2 min 0 min 13,7 km/h (3 Bft)
27.10.2012 10:32 15,4 C 1,5 C 0,2 UV-I 6,0 C 42 % 81 % 100 % 1005,4 hPa 0,0 l/m 8,0 km/h (2 Bft) 2 min 0 min 16,5 km/h (3 Bft)
27.10.2012 10:34 15,4 C 1,6 C 0,2 UV-I 6,0 C 42 % 80 % 100 % 1005,4 hPa 0,0 l/m 9,2 km/h (2 Bft) 2 min 0 min 15,3 km/h (3 Bft)
27.10.2012 10:36 15,4 C 1,7 C 0,2 UV-I 5,9 C 42 % 79 % 100 % 1005,4 hPa 0,0 l/m 9,6 km/h (2 Bft) 2 min 0 min 27,3 km/h (4 Bft)
27.10.2012 10:38 15,4 C 1,7 C 0,2 UV-I 5,7 C 42 % 79 % 100 % 1005,4 hPa 0,0 l/m 10,8 km/h (2 Bft) 2 min 0 min 14,5 km/h (3 Bft)
27.10.2012 10:40 15,4 C 1,8 C 0,2 UV-I 5,5 C 42 % 79 % 100 % 1005,4 hPa 0,0 l/m 11,6 km/h (2 Bft) 2 min 0 min 16,5 km/h (3 Bft)
27.10.2012 10:42 15,4 C 1,9 C 0,2 UV-I 5,4 C 42 % 78 % 100 % 1005,4 hPa 0,0 l/m 12,0 km/h (2 Bft) 2 min 0 min 12,0 km/h (2 Bft)
27.10.2012 10:44 15,4 C 1,9 C 0,2 UV-I 5,4 C 42 % 78 % 100 % 1005,4 hPa 0,0 l/m 12,0 km/h (2 Bft) 2 min 0 min 12,0 km/h (2 Bft)
27.10.2012 10:46 15,4 C 2,0 C 0,3 UV-I 5,7 C 42 % 78 % 100 % 1005,5 hPa 0,0 l/m 11,6 km/h (2 Bft) 2 min 0 min 12,8 km/h (3 Bft)
27.10.2012 10:48 15,4 C 2,1 C 0,3 UV-I 5,8 C 42 % 78 % 100 % 1005,5 hPa 0,0 l/m 10,8 km/h (2 Bft) 2 min 0 min 10,8 km/h (2 Bft)
27.10.2012 10:50 15,4 C 2,1 C 0,4 UV-I 5,8 C 42 % 78 % 100 % 1005,5 hPa 0,0 l/m 11,2 km/h (2 Bft) 2 min 0 min 18,1 km/h (3 Bft)
27.10.2012 10:52 15,4 C 2,3 C 0,4 UV-I 5,7 C 42 % 77 % 100 % 1005,5 hPa 0,0 l/m 10,8 km/h (2 Bft) 2 min 0 min 17,7 km/h (3 Bft)
27.10.2012 10:54 15,4 C 2,3 C 0,4 UV-I 5,9 C 42 % 77 % 100 % 1005,5 hPa 0,0 l/m 10,4 km/h (2 Bft) 2 min 0 min 11,2 km/h (2 Bft)
27.10.2012 10:56 15,4 C 2,4 C 0,4 UV-I 5,7 C 42 % 76 % 100 % 1005,5 hPa 0,0 l/m 12,0 km/h (2 Bft) 2 min 0 min 12,0 km/h (2 Bft)
27.10.2012 10:58 15,4 C 2,4 C 0,4 UV-I 5,7 C 42 % 76 % 100 % 1005,5 hPa 0,0 l/m 12,0 km/h (2 Bft) 2 min 0 min 8,8 km/h (2 Bft)
27.10.2012 11:00 15,4 C 2,4 C 0,3 UV-I 5,8 C 42 % 76 % 100 % 1005,5 hPa 0,0 l/m 11,2 km/h (2 Bft) 2 min 0 min 9,2 km/h (2 Bft)
27.10.2012 11:02 15,4 C 2,6 C 0,3 UV-I 6,2 C 42 % 75 % 100 % 1005,5 hPa 0,0 l/m 10,4 km/h (2 Bft) 2 min 0 min 18,9 km/h (3 Bft)
27.10.2012 11:04 15,4 C 2,7 C 0,3 UV-I 6,1 C 42 % 75 % 100 % 1005,5 hPa 0,0 l/m 10,4 km/h (2 Bft) 2 min 0 min 18,9 km/h (3 Bft)
27.10.2012 11:06 15,4 C 2,8 C 0,2 UV-I 6,1 C 42 % 74 % 100 % 1005,9 hPa 0,0 l/m 10,8 km/h (2 Bft) 2 min 0 min 14,9 km/h (3 Bft)
27.10.2012 11:08 15,4 C 2,9 C 0,2 UV-I 6,2 C 42 % 74 % 100 % 1005,9 hPa 0,0 l/m 10,8 km/h (2 Bft) 2 min 0 min 27,3 km/h (4 Bft)
27.10.2012 11:10 15,4 C 2,9 C 0,2 UV-I 5,9 C 42 % 73 % 100 % 1005,9 hPa 0,0 l/m 11,6 km/h (2 Bft) 2 min 0 min 13,3 km/h (3 Bft)
27.10.2012 11:12 15,4 C 2,9 C 0,2 UV-I 5,7 C 42 % 72 % 100 % 1005,9 hPa 0,0 l/m 12,4 km/h (3 Bft) 2 min 0 min 16,1 km/h (3 Bft)
27.10.2012 11:14 15,4 C 3,0 C 0,2 UV-I 5,5 C 42 % 72 % 100 % 1005,9 hPa 0,0 l/m 13,3 km/h (3 Bft) 2 min 0 min 10,4 km/h (2 Bft)
27.10.2012 11:16 15,4 C 3,0 C 0,2 UV-I 5,6 C 42 % 72 % 100 % 1005,9 hPa 0,0 l/m 13,3 km/h (3 Bft) 2 min 0 min 13,3 km/h (3 Bft)
27.10.2012 11:18 15,4 C 3,1 C 0,2 UV-I 5,3 C 41 % 72 % 100 % 1005,9 hPa 0,0 l/m 14,5 km/h (3 Bft) 2 min 0 min 19,3 km/h (3 Bft)
27.10.2012 11:20 15,4 C 3,1 C 0,3 UV-I 5,5 C 41 % 72 % 100 % 1005,9 hPa 0,0 l/m 12,8 km/h (3 Bft) 2 min 0 min 14,1 km/h (3 Bft)
27.10.2012 11:22 15,4 C 3,2 C 0,3 UV-I 5,5 C 41 % 72 % 100 % 1005,9 hPa 0,0 l/m 12,4 km/h (3 Bft) 2 min 0 min 15,3 km/h (3 Bft)
27.10.2012 11:24 15,4 C 3,2 C 0,3 UV-I 5,5 C 41 % 71 % 100 % 1005,9 hPa 0,0 l/m 12,4 km/h (3 Bft) 2 min 0 min 15,3 km/h (3 Bft)
27.10.2012 11:26 15,4 C 3,3 C 0,3 UV-I 5,9 C 41 % 71 % 100 % 1005,8 hPa 0,0 l/m 12,0 km/h (2 Bft) 2 min 0 min 18,5 km/h (3 Bft)
27.10.2012 11:28 15,4 C 3,4 C 0,3 UV-I 5,9 C 41 % 71 % 100 % 1005,8 hPa 0,0 l/m 12,0 km/h (2 Bft) 2 min 0 min 16,5 km/h (3 Bft)
27.10.2012 11:30 15,4 C 3,4 C 0,4 UV-I 6,0 C 41 % 71 % 100 % 1005,8 hPa 0,0 l/m 11,6 km/h (2 Bft) 2 min 0 min 11,2 km/h (2 Bft)
27.10.2012 11:32 15,4 C 3,5 C 0,4 UV-I 5,9 C 41 % 71 % 100 % 1005,8 hPa 0,0 l/m 11,6 km/h (2 Bft) 2 min 0 min 6,8 km/h (2 Bft)
27.10.2012 11:34 15,4 C 3,6 C 0,4 UV-I 6,3 C 41 % 71 % 100 % 1005,8 hPa 0,0 l/m 11,2 km/h (2 Bft) 2 min 0 min 16,1 km/h (3 Bft)
27.10.2012 11:36 15,4 C 3,6 C 0,4 UV-I 6,3 C 41 % 70 % 100 % 1005,8 hPa 0,0 l/m 11,2 km/h (2 Bft) 2 min 0 min 14,9 km/h (3 Bft)
27.10.2012 11:38 15,4 C 3,6 C 0,4 UV-I 6,6 C 41 % 70 % 100 % 1005,8 hPa 0,0 l/m 10,4 km/h (2 Bft) 2 min 0 min 16,5 km/h (3 Bft)
27.10.2012 11:40 15,4 C 3,9 C 0,4 UV-I 6,4 C 41 % 69 % 100 % 1005,8 hPa 0,0 l/m 10,0 km/h (2 Bft) 2 min 0 min 16,1 km/h (3 Bft)
27.10.2012 11:42 15,4 C 3,9 C 0,4 UV-I 6,4 C 41 % 69 % 100 % 1005,8 hPa 0,0 l/m 10,4 km/h (2 Bft) 2 min 0 min 9,2 km/h (2 Bft)
27.10.2012 11:44 15,4 C 3,9 C 0,4 UV-I 6,4 C 41 % 69 % 100 % 1005,8 hPa 0,0 l/m 10,4 km/h (2 Bft) 2 min 0 min 9,2 km/h (2 Bft)
27.10.2012 11:46 15,4 C 4,0 C 0,4 UV-I 6,4 C 41 % 68 % 100 % 1006,3 hPa 0,0 l/m 11,2 km/h (2 Bft) 2 min 0 min 27,7 km/h (4 Bft)
27.10.2012 11:48 15,4 C 4,1 C 0,4 UV-I 6,3 C 41 % 66 % 100 % 1006,3 hPa 0,0 l/m 11,2 km/h (2 Bft) 2 min 0 min 13,3 km/h (3 Bft)
27.10.2012 11:50 15,4 C 4,0 C 0,4 UV-I 6,1 C 41 % 67 % 100 % 1006,3 hPa 0,0 l/m 12,4 km/h (3 Bft) 2 min 0 min 22,9 km/h (4 Bft)
27.10.2012 11:52 15,4 C 4,1 C 0,4 UV-I 5,5 C 41 % 66 % 100 % 1006,3 hPa 0,0 l/m 14,1 km/h (3 Bft) 2 min 0 min 18,5 km/h (3 Bft)
27.10.2012 11:54 15,4 C 4,1 C 0,4 UV-I 5,3 C 41 % 65 % 100 % 1006,3 hPa 0,0 l/m 15,7 km/h (3 Bft) 2 min 0 min 18,5 km/h (3 Bft)
27.10.2012 11:56 15,4 C 4,1 C 0,4 UV-I 5,2 C 41 % 65 % 100 % 1006,3 hPa 0,0 l/m 15,3 km/h (3 Bft) 2 min 0 min 7,2 km/h (2 Bft)
27.10.2012 11:58 15,4 C 4,3 C 0,4 UV-I 5,6 C 41 % 65 % 100 % 1006,3 hPa 0,0 l/m 14,1 km/h (3 Bft) 2 min 0 min 18,9 km/h (3 Bft)
27.10.2012 12:00 15,4 C 4,4 C 0,2 UV-I 5,8 C 41 % 65 % 100 % 1006,3 hPa 0,0 l/m 13,7 km/h (3 Bft) 2 min 0 min 12,4 km/h (3 Bft)
27.10.2012 12:02 15,4 C 4,4 C 0,2 UV-I 6,2 C 41 % 65 % 100 % 1006,3 hPa 0,0 l/m 12,4 km/h (3 Bft) 2 min 0 min 20,5 km/h (4 Bft)
27.10.2012 12:04 15,4 C 4,4 C 0,2 UV-I 6,2 C 41 % 65 % 100 % 1006,3 hPa 0,0 l/m 12,4 km/h (3 Bft) 2 min 0 min 20,5 km/h (4 Bft)
27.10.2012 12:06 15,4 C 4,6 C 0,2 UV-I 6,1 C 40 % 64 % 100 % 1006,6 hPa 0,0 l/m 11,6 km/h (2 Bft) 2 min 0 min 12,4 km/h (3 Bft)
27.10.2012 12:08 15,4 C 4,7 C 0,2 UV-I 5,9 C 41 % 63 % 100 % 1006,6 hPa 0,0 l/m 12,4 km/h (3 Bft) 2 min 0 min 12,8 km/h (3 Bft)
27.10.2012 12:10 15,4 C 4,7 C 0,2 UV-I 6,1 C 41 % 63 % 100 % 1006,6 hPa 0,0 l/m 11,6 km/h (2 Bft) 2 min 0 min 26,5 km/h (4 Bft)
27.10.2012 12:12 15,3 C 4,8 C 0,2 UV-I 6,1 C 40 % 61 % 100 % 1006,6 hPa 0,0 l/m 12,4 km/h (3 Bft) 2 min 0 min 20,9 km/h (4 Bft)
27.10.2012 12:14 15,3 C 4,7 C 0,6 UV-I 6,0 C 41 % 60 % 100 % 1006,6 hPa 0,0 l/m 13,3 km/h (3 Bft) 2 min 0 min 28,1 km/h (4 Bft)
27.10.2012 12:16 15,3 C 4,8 C 0,6 UV-I 6,0 C 40 % 57 % 100 % 1006,6 hPa 0,0 l/m 12,4 km/h (3 Bft) 2 min 0 min 13,3 km/h (3 Bft)
27.10.2012 12:18 15,4 C 4,9 C 0,6 UV-I 6,0 C 40 % 57 % 100 % 1006,6 hPa 0,0 l/m 12,0 km/h (2 Bft) 2 min 0 min 9,2 km/h (2 Bft)
27.10.2012 12:20 15,5 C 5,1 C 0,7 UV-I 6,2 C 40 % 57 % 100 % 1006,6 hPa 0,0 l/m 11,6 km/h (2 Bft) 2 min 0 min 8,4 km/h (2 Bft)
27.10.2012 12:22 15,5 C 5,1 C 0,7 UV-I 6,5 C 41 % 56 % 100 % 1006,6 hPa 0,0 l/m 10,4 km/h (2 Bft) 2 min 0 min 7,2 km/h (2 Bft)
27.10.2012 12:24 15,5 C 5,2 C 0,7 UV-I 6,4 C 40 % 54 % 100 % 1006,6 hPa 0,0 l/m 10,4 km/h (2 Bft) 2 min 0 min 7,2 km/h (2 Bft)
27.10.2012 12:26 15,4 C 5,2 C 0,7 UV-I 7,0 C 41 % 55 % 100 % 1006,8 hPa 0,0 l/m 7,2 km/h (2 Bft) 2 min 0 min 6,4 km/h (2 Bft)
27.10.2012 12:28 15,6 C 5,3 C 0,7 UV-I 7,2 C 41 % 55 % 100 % 1006,8 hPa 0,0 l/m 6,8 km/h (2 Bft) 2 min 0 min 7,2 km/h (2 Bft)
27.10.2012 12:30 15,6 C 5,4 C 1,2 UV-I 7,3 C 41 % 53 % 100 % 1006,8 hPa 0,0 l/m 6,8 km/h (2 Bft) 2 min 0 min 8,4 km/h (2 Bft)
27.10.2012 12:32 15,6 C 5,5 C 1,2 UV-I 7,3 C 41 % 52 % 100 % 1006,8 hPa 0,0 l/m 6,8 km/h (2 Bft) 2 min 0 min 8,4 km/h (2 Bft)
27.10.2012 12:34 15,6 C 5,4 C 1,3 UV-I 7,4 C 41 % 51 % 100 % 1006,8 hPa 0,0 l/m 7,2 km/h (2 Bft) 2 min 0 min 15,3 km/h (3 Bft)
27.10.2012 12:36 15,6 C 5,5 C 1,3 UV-I 7,2 C 41 % 51 % 100 % 1006,8 hPa 0,0 l/m 8,8 km/h (2 Bft) 2 min 0 min 16,1 km/h (3 Bft)
27.10.2012 12:38 15,6 C 5,5 C 1,3 UV-I 7,0 C 40 % 50 % 100 % 1006,8 hPa 0,0 l/m 10,4 km/h (2 Bft) 2 min 0 min 12,0 km/h (2 Bft)
27.10.2012 12:40 15,6 C 5,4 C 1,3 UV-I 6,9 C 40 % 49 % 100 % 1006,8 hPa 0,0 l/m 12,0 km/h (2 Bft) 2 min 0 min 21,3 km/h (4 Bft)
27.10.2012 12:42 15,6 C 5,5 C 1,3 UV-I 6,4 C 40 % 49 % 100 % 1006,8 hPa 0,0 l/m 12,8 km/h (3 Bft) 2 min 0 min 20,1 km/h (4 Bft)
27.10.2012 12:44 15,6 C 5,5 C 1,3 UV-I 6,4 C 40 % 49 % 100 % 1006,8 hPa 0,0 l/m 12,8 km/h (3 Bft) 2 min 0 min 20,1 km/h (4 Bft)
27.10.2012 12:46 15,6 C 5,6 C 1,4 UV-I 6,3 C 40 % 49 % 100 % 1006,5 hPa 0,0 l/m 13,7 km/h (3 Bft) 2 min 0 min 22,9 km/h (4 Bft)
27.10.2012 12:48 15,7 C 5,5 C 1,4 UV-I 6,0 C 40 % 48 % 100 % 1006,5 hPa 0,0 l/m 14,9 km/h (3 Bft) 2 min 0 min 39,3 km/h (6 Bft)
27.10.2012 12:50 15,7 C 5,5 C 1,5 UV-I 5,4 C 40 % 48 % 100 % 1006,5 hPa 0,0 l/m 16,1 km/h (3 Bft) 2 min 0 min 24,1 km/h (4 Bft)
27.10.2012 12:52 15,7 C 5,5 C 1,5 UV-I 5,1 C 39 % 48 % 100 % 1006,5 hPa 0,0 l/m 16,5 km/h (3 Bft) 2 min 0 min 12,4 km/h (3 Bft)
27.10.2012 12:54 15,7 C 5,5 C 1,5 UV-I 4,9 C 39 % 49 % 100 % 1006,5 hPa 0,0 l/m 17,3 km/h (3 Bft) 2 min 0 min 10,4 km/h (2 Bft)
27.10.2012 12:56 15,7 C 5,6 C 1,5 UV-I 4,8 C 39 % 49 % 100 % 1006,5 hPa 0,0 l/m 18,1 km/h (3 Bft) 2 min 0 min 13,7 km/h (3 Bft)
27.10.2012 12:58 15,6 C 5,7 C 1,5 UV-I 4,7 C 39 % 47 % 100 % 1006,5 hPa 0,0 l/m 18,1 km/h (3 Bft) 2 min 0 min 43,0 km/h (6 Bft)
27.10.2012 13:00 15,7 C 5,6 C 1,6 UV-I 4,8 C 39 % 46 % 100 % 1006,5 hPa 0,0 l/m 18,1 km/h (3 Bft) 2 min 0 min 28,5 km/h (4 Bft)
27.10.2012 13:02 15,6 C 5,7 C 1,6 UV-I 4,7 C 39 % 46 % 100 % 1006,5 hPa 0,0 l/m 16,5 km/h (3 Bft) 2 min 0 min 13,7 km/h (3 Bft)
27.10.2012 13:04 15,6 C 5,7 C 1,6 UV-I 4,7 C 39 % 47 % 100 % 1006,5 hPa 0,0 l/m 16,5 km/h (3 Bft) 2 min 0 min 13,7 km/h (3 Bft)
27.10.2012 13:06 15,6 C 5,9 C 1,7 UV-I 5,2 C 39 % 49 % 100 % 1006,6 hPa 0,0 l/m 14,5 km/h (3 Bft) 2 min 0 min 6,0 km/h (2 Bft)
27.10.2012 13:08 15,8 C 5,9 C 1,7 UV-I 5,4 C 39 % 47 % 100 % 1006,6 hPa 0,0 l/m 14,5 km/h (3 Bft) 2 min 0 min 15,3 km/h (3 Bft)
27.10.2012 13:10 15,8 C 5,9 C 1,7 UV-I 5,9 C 39 % 47 % 100 % 1006,6 hPa 0,0 l/m 12,0 km/h (2 Bft) 2 min 0 min 16,9 km/h (3 Bft)
27.10.2012 13:12 15,8 C 6,0 C 1,7 UV-I 5,9 C 39 % 47 % 100 % 1006,6 hPa 0,0 l/m 11,6 km/h (2 Bft) 2 min 0 min 16,1 km/h (3 Bft)
27.10.2012 13:14 15,8 C 6,0 C 1,7 UV-I 6,0 C 38 % 47 % 100 % 1006,6 hPa 0,0 l/m 11,6 km/h (2 Bft) 2 min 0 min 9,2 km/h (2 Bft)
27.10.2012 13:16 15,8 C 6,0 C 1,7 UV-I 6,0 C 38 % 44 % 100 % 1006,6 hPa 0,0 l/m 12,0 km/h (2 Bft) 2 min 0 min 23,3 km/h (4 Bft)
27.10.2012 13:18 15,9 C 6,0 C 1,7 UV-I 5,9 C 38 % 44 % 100 % 1006,6 hPa 0,0 l/m 13,7 km/h (3 Bft) 2 min 0 min 11,2 km/h (2 Bft)
27.10.2012 13:20 15,9 C 6,0 C 1,7 UV-I 5,8 C 38 % 45 % 100 % 1006,6 hPa 0,0 l/m 13,7 km/h (3 Bft) 2 min 0 min 16,1 km/h (3 Bft)
27.10.2012 13:22 15,8 C 6,1 C 1,7 UV-I 5,8 C 38 % 46 % 100 % 1006,6 hPa 0,0 l/m 13,7 km/h (3 Bft) 2 min 0 min 13,7 km/h (3 Bft)
27.10.2012 13:24 16,0 C 6,2 C 1,7 UV-I 5,7 C 38 % 47 % 100 % 1006,6 hPa 0,0 l/m 13,7 km/h (3 Bft) 2 min 0 min 13,7 km/h (3 Bft)
27.10.2012 13:26 16,0 C 6,3 C 1,7 UV-I 6,0 C 38 % 47 % 100 % 1007,1 hPa 0,0 l/m 12,8 km/h (3 Bft) 2 min 0 min 21,7 km/h (4 Bft)
27.10.2012 13:28 16,0 C 6,3 C 1,7 UV-I 6,1 C 38 % 47 % 100 % 1007,1 hPa 0,0 l/m 12,0 km/h (2 Bft) 2 min 0 min 10,4 km/h (2 Bft)
27.10.2012 13:30 15,9 C 6,3 C 1,8 UV-I 6,2 C 38 % 47 % 100 % 1007,1 hPa 0,0 l/m 10,8 km/h (2 Bft) 2 min 0 min 5,6 km/h (1 Bft)
27.10.2012 13:32 15,9 C 6,4 C 1,8 UV-I 6,3 C 38 % 48 % 100 % 1007,1 hPa 0,0 l/m 10,0 km/h (2 Bft) 2 min 0 min 12,8 km/h (3 Bft)
27.10.2012 13:34 16,1 C 6,4 C 1,8 UV-I 6,5 C 38 % 47 % 100 % 1007,1 hPa 0,0 l/m 10,0 km/h (2 Bft) 2 min 0 min 17,7 km/h (3 Bft)
27.10.2012 13:36 16,2 C 6,4 C 1,8 UV-I 6,4 C 38 % 47 % 100 % 1007,1 hPa 0,0 l/m 10,8 km/h (2 Bft) 2 min 0 min 15,3 km/h (3 Bft)
27.10.2012 13:38 16,2 C 6,5 C 1,8 UV-I 6,3 C 38 % 47 % 100 % 1007,1 hPa 0,0 l/m 10,4 km/h (2 Bft) 2 min 0 min 14,1 km/h (3 Bft)
27.10.2012 13:40 16,2 C 6,5 C 1,8 UV-I 6,4 C 38 % 46 % 100 % 1007,1 hPa 0,0 l/m 10,8 km/h (2 Bft) 2 min 0 min 25,3 km/h (4 Bft)
27.10.2012 13:42 16,3 C 6,5 C 1,8 UV-I 6,2 C 38 % 44 % 100 % 1007,1 hPa 0,0 l/m 13,7 km/h (3 Bft) 2 min 0 min 24,1 km/h (4 Bft)
27.10.2012 13:44 16,2 C 6,5 C 1,8 UV-I 6,2 C 38 % 44 % 100 % 1007,1 hPa 0,0 l/m 13,7 km/h (3 Bft) 2 min 0 min 24,1 km/h (4 Bft)
27.10.2012 13:46 16,4 C 6,6 C 1,7 UV-I 5,8 C 38 % 45 % 100 % 1007,3 hPa 0,0 l/m 12,8 km/h (3 Bft) 2 min 0 min 8,8 km/h (2 Bft)
27.10.2012 13:48 16,4 C 6,7 C 1,7 UV-I 5,8 C 38 % 45 % 100 % 1007,3 hPa 0,0 l/m 13,3 km/h (3 Bft) 2 min 0 min 19,3 km/h (3 Bft)
27.10.2012 13:50 16,5 C 6,7 C 1,6 UV-I 5,5 C 38 % 44 % 100 % 1007,3 hPa 0,0 l/m 14,5 km/h (3 Bft) 2 min 0 min 20,5 km/h (4 Bft)
27.10.2012 13:52 16,6 C 6,7 C 1,6 UV-I 5,6 C 38 % 44 % 100 % 1007,3 hPa 0,0 l/m 13,7 km/h (3 Bft) 2 min 0 min 21,7 km/h (4 Bft)
27.10.2012 13:54 16,7 C 6,7 C 1,6 UV-I 5,5 C 38 % 44 % 100 % 1007,3 hPa 0,0 l/m 14,1 km/h (3 Bft) 2 min 0 min 16,9 km/h (3 Bft)
27.10.2012 13:56 16,7 C 6,7 C 1,6 UV-I 5,1 C 37 % 43 % 100 % 1007,3 hPa 0,0 l/m 15,3 km/h (3 Bft) 2 min 0 min 26,5 km/h (4 Bft)
27.10.2012 13:58 16,8 C 6,7 C 1,6 UV-I 4,9 C 37 % 42 % 100 % 1007,3 hPa 0,0 l/m 16,9 km/h (3 Bft) 2 min 0 min 17,3 km/h (3 Bft)
27.10.2012 14:00 16,9 C 6,6 C 1,6 UV-I 4,7 C 37 % 42 % 100 % 1007,3 hPa 0,0 l/m 17,7 km/h (3 Bft) 2 min 0 min 18,5 km/h (3 Bft)
27.10.2012 14:02 17,0 C 6,5 C 1,6 UV-I 4,7 C 37 % 43 % 100 % 1007,3 hPa 0,0 l/m 18,1 km/h (3 Bft) 2 min 0 min 14,9 km/h (3 Bft)
27.10.2012 14:04 17,0 C 6,7 C 1,6 UV-I 4,5 C 37 % 43 % 100 % 1007,3 hPa 0,0 l/m 18,1 km/h (3 Bft) 2 min 0 min 14,9 km/h (3 Bft)
27.10.2012 14:06 17,1 C 6,7 C 1,7 UV-I 4,6 C 37 % 42 % 100 % 1009,1 hPa 0,0 l/m 17,3 km/h (3 Bft) 2 min 0 min 9,6 km/h (2 Bft)
27.10.2012 14:08 17,2 C 6,7 C 1,7 UV-I 5,1 C 37 % 43 % 100 % 1009,1 hPa 0,0 l/m 14,9 km/h (3 Bft) 2 min 0 min 15,3 km/h (3 Bft)
27.10.2012 14:10 17,2 C 6,8 C 1,7 UV-I 5,3 C 36 % 43 % 100 % 1009,1 hPa 0,0 l/m 14,5 km/h (3 Bft) 2 min 0 min 26,9 km/h (4 Bft)
27.10.2012 14:12 17,2 C 6,7 C 1,7 UV-I 5,4 C 36 % 42 % 100 % 1009,1 hPa 0,0 l/m 14,9 km/h (3 Bft) 2 min 0 min 22,9 km/h (4 Bft)
27.10.2012 14:14 17,4 C 6,8 C 1,8 UV-I 5,2 C 36 % 42 % 100 % 1009,1 hPa 0,0 l/m 14,9 km/h (3 Bft) 2 min 0 min 16,5 km/h (3 Bft)
27.10.2012 14:16 17,4 C 6,8 C 1,8 UV-I 5,4 C 36 % 42 % 100 % 1009,1 hPa 0,0 l/m 13,3 km/h (3 Bft) 2 min 0 min 8,4 km/h (2 Bft)
27.10.2012 14:18 17,6 C 6,8 C 1,8 UV-I 5,3 C 36 % 40 % 100 % 1009,1 hPa 0,0 l/m 15,3 km/h (3 Bft) 2 min 0 min 24,5 km/h (4 Bft)
27.10.2012 14:20 17,6 C 6,8 C 1,7 UV-I 5,1 C 36 % 40 % 100 % 1009,1 hPa 0,0 l/m 16,5 km/h (3 Bft) 2 min 0 min 22,9 km/h (4 Bft)
27.10.2012 14:22 17,7 C 6,8 C 1,7 UV-I 4,8 C 35 % 41 % 100 % 1009,1 hPa 0,0 l/m 16,5 km/h (3 Bft) 2 min 0 min 26,5 km/h (4 Bft)
27.10.2012 14:24 17,8 C 6,9 C 1,7 UV-I 4,7 C 34 % 40 % 100 % 1009,1 hPa 0,0 l/m 16,5 km/h (3 Bft) 2 min 0 min 26,5 km/h (4 Bft)
27.10.2012 14:26 17,9 C 6,9 C 1,7 UV-I 4,4 C 34 % 41 % 100 % 1011,1 hPa 0,0 l/m 17,7 km/h (3 Bft) 2 min 0 min 24,9 km/h (4 Bft)
27.10.2012 14:28 17,9 C 6,8 C 1,7 UV-I 4,5 C 34 % 41 % 100 % 1011,1 hPa 0,0 l/m 17,7 km/h (3 Bft) 2 min 0 min 19,7 km/h (3 Bft)
27.10.2012 14:30 18,0 C 6,9 C 1,6 UV-I 4,4 C 34 % 43 % 100 % 1011,1 hPa 0,0 l/m 16,5 km/h (3 Bft) 2 min 0 min 16,5 km/h (3 Bft)
27.10.2012 14:32 18,0 C 7,0 C 1,6 UV-I 4,7 C 34 % 45 % 100 % 1011,1 hPa 0,0 l/m 16,1 km/h (3 Bft) 2 min 0 min 21,3 km/h (4 Bft)
27.10.2012 14:34 18,1 C 7,0 C 1,6 UV-I 4,8 C 33 % 46 % 100 % 1011,1 hPa 0,0 l/m 15,3 km/h (3 Bft) 2 min 0 min 12,8 km/h (3 Bft)
27.10.2012 14:36 18,1 C 7,1 C 1,6 UV-I 5,0 C 33 % 46 % 100 % 1011,1 hPa 0,0 l/m 14,5 km/h (3 Bft) 2 min 0 min 5,2 km/h (1 Bft)
27.10.2012 14:38 18,2 C 7,1 C 1,6 UV-I 5,3 C 33 % 46 % 100 % 1011,1 hPa 0,0 l/m 12,8 km/h (3 Bft) 2 min 0 min 21,7 km/h (4 Bft)
27.10.2012 14:40 18,2 C 7,1 C 1,6 UV-I 5,3 C 33 % 46 % 100 % 1011,1 hPa 0,0 l/m 13,3 km/h (3 Bft) 2 min 0 min 24,9 km/h (4 Bft)
27.10.2012 14:42 18,2 C 7,1 C 1,6 UV-I 5,3 C 33 % 46 % 100 % 1011,1 hPa 0,0 l/m 12,4 km/h (3 Bft) 2 min 0 min 11,2 km/h (2 Bft)
27.10.2012 14:44 18,2 C 7,2 C 1,6 UV-I 5,2 C 33 % 46 % 100 % 1011,1 hPa 0,0 l/m 12,4 km/h (3 Bft) 2 min 0 min 11,2 km/h (2 Bft)
27.10.2012 14:46 18,4 C 7,1 C 1,6 UV-I 5,6 C 33 % 45 % 100 % 1010,4 hPa 0,0 l/m 12,4 km/h (3 Bft) 2 min 0 min 17,7 km/h (3 Bft)
27.10.2012 14:48 18,4 C 7,2 C 1,6 UV-I 5,5 C 33 % 45 % 100 % 1010,4 hPa 0,0 l/m 12,4 km/h (3 Bft) 2 min 0 min 10,0 km/h (2 Bft)
27.10.2012 14:50 18,5 C 7,2 C 1,5 UV-I 5,5 C 33 % 45 % 100 % 1010,4 hPa 0,0 l/m 12,8 km/h (3 Bft) 2 min 0 min 14,5 km/h (3 Bft)
27.10.2012 14:52 18,6 C 7,0 C 1,5 UV-I 5,4 C 32 % 45 % 100 % 1010,4 hPa 0,0 l/m 13,7 km/h (3 Bft) 2 min 0 min 26,5 km/h (4 Bft)
27.10.2012 14:54 18,6 C 7,1 C 1,5 UV-I 5,2 C 32 % 45 % 100 % 1010,4 hPa 0,0 l/m 14,1 km/h (3 Bft) 2 min 0 min 15,3 km/h (3 Bft)
27.10.2012 14:56 18,7 C 7,1 C 1,5 UV-I 4,8 C 32 % 45 % 100 % 1010,4 hPa 0,0 l/m 15,7 km/h (3 Bft) 2 min 0 min 32,1 km/h (5 Bft)
27.10.2012 14:58 18,7 C 7,1 C 1,5 UV-I 4,6 C 32 % 44 % 100 % 1010,4 hPa 0,0 l/m 16,9 km/h (3 Bft) 2 min 0 min 14,5 km/h (3 Bft)
27.10.2012 15:00 18,8 C 7,1 C 1,4 UV-I 4,5 C 32 % 44 % 100 % 1010,4 hPa 0,0 l/m 17,3 km/h (3 Bft) 2 min 0 min 16,1 km/h (3 Bft)
27.10.2012 15:02 18,8 C 7,1 C 1,4 UV-I 4,4 C 32 % 44 % 100 % 1010,4 hPa 0,0 l/m 16,5 km/h (3 Bft) 2 min 0 min 12,4 km/h (3 Bft)
27.10.2012 15:04 18,8 C 7,1 C 1,4 UV-I 4,4 C 31 % 44 % 100 % 1010,4 hPa 0,0 l/m 16,5 km/h (3 Bft) 2 min 0 min 12,4 km/h (3 Bft)
27.10.2012 15:06 18,9 C 7,0 C 1,3 UV-I 4,6 C 32 % 44 % 100 % 1009,2 hPa 0,0 l/m 16,5 km/h (3 Bft) 2 min 0 min 24,9 km/h (4 Bft)
27.10.2012 15:08 18,9 C 7,1 C 1,3 UV-I 4,7 C 31 % 43 % 100 % 1009,2 hPa 0,0 l/m 14,9 km/h (3 Bft) 2 min 0 min 15,7 km/h (3 Bft)
27.10.2012 15:10 18,9 C 7,1 C 1,1 UV-I 4,6 C 31 % 43 % 100 % 1009,2 hPa 0,0 l/m 14,5 km/h (3 Bft) 2 min 0 min 16,9 km/h (3 Bft)
27.10.2012 15:12 19,0 C 7,1 C 1,1 UV-I 4,7 C 31 % 44 % 100 % 1009,2 hPa 0,0 l/m 14,1 km/h (3 Bft) 2 min 0 min 10,4 km/h (2 Bft)
27.10.2012 15:14 19,0 C 7,2 C 1,0 UV-I 4,7 C 31 % 43 % 100 % 1009,2 hPa 0,0 l/m 14,1 km/h (3 Bft) 2 min 0 min 13,7 km/h (3 Bft)
27.10.2012 15:16 19,1 C 7,2 C 1,0 UV-I 4,5 C 31 % 41 % 100 % 1009,2 hPa 0,0 l/m 15,3 km/h (3 Bft) 2 min 0 min 20,1 km/h (4 Bft)
27.10.2012 15:18 19,1 C 7,2 C 1,0 UV-I 4,6 C 31 % 41 % 100 % 1009,2 hPa 0,0 l/m 14,5 km/h (3 Bft) 2 min 0 min 27,7 km/h (4 Bft)
27.10.2012 15:20 19,2 C 7,1 C 1,0 UV-I 4,7 C 30 % 42 % 100 % 1009,2 hPa 0,0 l/m 14,1 km/h (3 Bft) 2 min 0 min 22,5 km/h (4 Bft)
27.10.2012 15:22 19,2 C 7,1 C 1,0 UV-I 4,7 C 30 % 42 % 100 % 1009,2 hPa 0,0 l/m 14,1 km/h (3 Bft) 2 min 0 min 13,7 km/h (3 Bft)
27.10.2012 15:24 19,2 C 7,1 C 1,0 UV-I 4,7 C 30 % 41 % 100 % 1009,2 hPa 0,0 l/m 14,1 km/h (3 Bft) 2 min 0 min 13,7 km/h (3 Bft)
27.10.2012 15:26 19,2 C 7,2 C 0,9 UV-I 5,0 C 30 % 41 % 100 % 1008,3 hPa 0,0 l/m 13,7 km/h (3 Bft) 2 min 0 min 12,0 km/h (2 Bft)
27.10.2012 15:28 19,2 C 7,2 C 0,9 UV-I 5,0 C 30 % 40 % 100 % 1008,3 hPa 0,0 l/m 13,3 km/h (3 Bft) 2 min 0 min 26,5 km/h (4 Bft)
27.10.2012 15:30 19,2 C 7,3 C 0,8 UV-I 4,6 C 30 % 38 % 100 % 1008,3 hPa 0,0 l/m 14,5 km/h (3 Bft) 2 min 0 min 20,1 km/h (4 Bft)
27.10.2012 15:32 19,2 C 7,1 C 0,8 UV-I 4,3 C 30 % 38 % 100 % 1008,3 hPa 0,0 l/m 15,7 km/h (3 Bft) 2 min 0 min 24,9 km/h (4 Bft)
27.10.2012 15:34 19,4 C 7,1 C 0,7 UV-I 4,0 C 30 % 39 % 100 % 1008,3 hPa 0,0 l/m 17,3 km/h (3 Bft) 2 min 0 min 22,9 km/h (4 Bft)
27.10.2012 15:36 19,4 C 7,1 C 0,7 UV-I 3,6 C 30 % 38 % 100 % 1008,3 hPa 0,0 l/m 18,5 km/h (3 Bft) 2 min 0 min 31,3 km/h (5 Bft)
27.10.2012 15:38 19,4 C 7,1 C 0,7 UV-I 3,3 C 30 % 38 % 94 % 1008,3 hPa 0,0 l/m 19,7 km/h (3 Bft) 2 min 0 min 22,5 km/h (4 Bft)
27.10.2012 15:40 19,5 C 7,1 C 0,7 UV-I 3,2 C 29 % 37 % 91 % 1008,3 hPa 0,0 l/m 20,1 km/h (4 Bft) 2 min 0 min 25,3 km/h (4 Bft)
27.10.2012 15:42 19,5 C 7,1 C 0,7 UV-I 3,1 C 29 % 37 % 89 % 1008,3 hPa 0,0 l/m 20,9 km/h (4 Bft) 2 min 0 min 18,1 km/h (3 Bft)
27.10.2012 15:44 19,5 C 7,1 C 0,7 UV-I 3,1 C 29 % 38 % 89 % 1008,3 hPa 0,0 l/m 20,9 km/h (4 Bft) 2 min 0 min 18,1 km/h (3 Bft)
27.10.2012 15:46 19,6 C 7,0 C 0,7 UV-I 3,0 C 29 % 38 % 86 % 1007,4 hPa 0,0 l/m 20,9 km/h (4 Bft) 2 min 0 min 24,1 km/h (4 Bft)
27.10.2012 15:48 19,6 C 7,1 C 0,7 UV-I 3,0 C 29 % 38 % 86 % 1007,4 hPa 0,0 l/m 20,1 km/h (4 Bft) 2 min 0 min 18,5 km/h (3 Bft)
27.10.2012 15:50 19,6 C 7,2 C 0,6 UV-I 3,0 C 29 % 39 % 86 % 1007,4 hPa 0,0 l/m 18,9 km/h (3 Bft) 2 min 0 min 7,2 km/h (2 Bft)
27.10.2012 15:52 19,7 C 7,2 C 0,6 UV-I 3,6 C 29 % 40 % 100 % 1007,4 hPa 0,0 l/m 15,7 km/h (3 Bft) 2 min 0 min 6,0 km/h (2 Bft)
27.10.2012 15:54 19,7 C 7,3 C 0,5 UV-I 4,0 C 29 % 39 % 100 % 1007,4 hPa 0,0 l/m 14,1 km/h (3 Bft) 2 min 0 min 21,7 km/h (4 Bft)
27.10.2012 15:56 19,7 C 7,5 C 0,5 UV-I 4,2 C 29 % 37 % 100 % 1007,4 hPa 0,0 l/m 12,4 km/h (3 Bft) 2 min 0 min 16,5 km/h (3 Bft)
27.10.2012 15:58 19,8 C 7,3 C 0,5 UV-I 4,1 C 29 % 38 % 100 % 1007,4 hPa 0,0 l/m 13,7 km/h (3 Bft) 2 min 0 min 41,8 km/h (6 Bft)
27.10.2012 16:00 19,8 C 7,3 C 0,4 UV-I 3,8 C 29 % 37 % 100 % 1007,4 hPa 0,0 l/m 14,9 km/h (3 Bft) 2 min 0 min 22,1 km/h (4 Bft)
27.10.2012 16:02 19,8 C 7,2 C 0,4 UV-I 3,7 C 29 % 37 % 100 % 1007,4 hPa 0,0 l/m 16,5 km/h (3 Bft) 2 min 0 min 30,9 km/h (5 Bft)
27.10.2012 16:04 19,8 C 7,2 C 0,4 UV-I 3,7 C 29 % 36 % 100 % 1007,4 hPa 0,0 l/m 16,5 km/h (3 Bft) 2 min 0 min 30,9 km/h (5 Bft)
27.10.2012 16:06 19,9 C 7,2 C 0,4 UV-I 3,6 C 29 % 37 % 100 % 1008,0 hPa 0,0 l/m 19,3 km/h (3 Bft) 2 min 0 min 20,5 km/h (4 Bft)
27.10.2012 16:08 19,9 C 7,3 C 0,4 UV-I 3,0 C 28 % 38 % 86 % 1008,0 hPa 0,0 l/m 18,5 km/h (3 Bft) 2 min 0 min 20,9 km/h (4 Bft)
27.10.2012 16:10 20,0 C 7,2 C 0,4 UV-I 3,4 C 29 % 39 % 97 % 1008,0 hPa 0,0 l/m 16,5 km/h (3 Bft) 2 min 0 min 16,9 km/h (3 Bft)
27.10.2012 16:12 20,0 C 7,2 C 0,4 UV-I 3,7 C 28 % 39 % 100 % 1008,0 hPa 0,0 l/m 14,9 km/h (3 Bft) 2 min 0 min 14,1 km/h (3 Bft)
27.10.2012 16:14 20,0 C 7,3 C 0,4 UV-I 3,8 C 28 % 39 % 100 % 1008,0 hPa 0,0 l/m 13,3 km/h (3 Bft) 2 min 0 min 16,9 km/h (3 Bft)
27.10.2012 16:16 20,0 C 7,2 C 0,4 UV-I 4,1 C 28 % 39 % 100 % 1008,0 hPa 0,0 l/m 12,8 km/h (3 Bft) 2 min 0 min 20,5 km/h (4 Bft)
27.10.2012 16:18 20,0 C 7,2 C 0,4 UV-I 4,1 C 28 % 40 % 100 % 1008,0 hPa 0,0 l/m 12,8 km/h (3 Bft) 2 min 0 min 13,7 km/h (3 Bft)
27.10.2012 16:20 20,1 C 7,2 C 0,3 UV-I 3,9 C 28 % 40 % 100 % 1008,0 hPa 0,0 l/m 13,7 km/h (3 Bft) 2 min 0 min 18,9 km/h (3 Bft)
27.10.2012 16:22 20,1 C 7,2 C 0,3 UV-I 3,6 C 28 % 41 % 100 % 1008,0 hPa 0,0 l/m 14,1 km/h (3 Bft) 2 min 0 min 12,0 km/h (2 Bft)
27.10.2012 16:24 20,1 C 7,3 C 0,3 UV-I 3,5 C 28 % 41 % 100 % 1008,0 hPa 0,0 l/m 14,1 km/h (3 Bft) 2 min 0 min 12,0 km/h (2 Bft)
27.10.2012 16:26 20,1 C 7,2 C 0,3 UV-I 3,5 C 28 % 40 % 100 % 1008,4 hPa 0,0 l/m 14,9 km/h (3 Bft) 2 min 0 min 32,5 km/h (5 Bft)
27.10.2012 16:28 20,1 C 7,1 C 0,3 UV-I 3,6 C 28 % 40 % 100 % 1008,4 hPa 0,0 l/m 14,1 km/h (3 Bft) 2 min 0 min 13,7 km/h (3 Bft)
27.10.2012 16:30 20,2 C 7,1 C 0,2 UV-I 3,5 C 28 % 40 % 100 % 1008,4 hPa 0,0 l/m 14,5 km/h (3 Bft) 2 min 0 min 19,7 km/h (3 Bft)
27.10.2012 16:32 20,1 C 7,1 C 0,2 UV-I 3,5 C 28 % 40 % 100 % 1008,4 hPa 0,0 l/m 14,5 km/h (3 Bft) 2 min 0 min 19,7 km/h (3 Bft)
27.10.2012 16:34 20,2 C 7,0 C 0,2 UV-I 3,4 C 28 % 41 % 97 % 1008,4 hPa 0,0 l/m 14,1 km/h (3 Bft) 2 min 0 min 10,4 km/h (2 Bft)
27.10.2012 16:36 20,2 C 7,1 C 0,2 UV-I 3,4 C 28 % 42 % 97 % 1008,4 hPa 0,0 l/m 13,7 km/h (3 Bft) 2 min 0 min 19,7 km/h (3 Bft)
27.10.2012 16:38 20,2 C 7,1 C 0,2 UV-I 3,5 C 28 % 43 % 100 % 1008,4 hPa 0,0 l/m 13,3 km/h (3 Bft) 2 min 0 min 19,7 km/h (3 Bft)
27.10.2012 16:40 20,2 C 7,1 C 0,2 UV-I 3,3 C 28 % 43 % 94 % 1008,4 hPa 0,0 l/m 13,7 km/h (3 Bft) 2 min 0 min 14,5 km/h (3 Bft)
27.10.2012 16:42 20,2 C 7,1 C 0,2 UV-I 3,5 C 28 % 43 % 100 % 1008,4 hPa 0,0 l/m 12,4 km/h (3 Bft) 2 min 0 min 15,7 km/h (3 Bft)
27.10.2012 16:44 20,2 C 7,0 C 0,2 UV-I 3,6 C 28 % 44 % 100 % 1008,4 hPa 0,0 l/m 12,4 km/h (3 Bft) 2 min 0 min 15,7 km/h (3 Bft)
27.10.2012 16:46 20,2 C 6,9 C 0,1 UV-I 3,8 C 28 % 45 % 100 % 1008,0 hPa 0,0 l/m 11,2 km/h (2 Bft) 2 min 0 min 11,2 km/h (2 Bft)
27.10.2012 16:48 20,2 C 6,9 C 0,1 UV-I 3,9 C 28 % 46 % 100 % 1008,0 hPa 0,0 l/m 10,0 km/h (2 Bft) 2 min 0 min 8,4 km/h (2 Bft)
27.10.2012 16:50 20,2 C 6,8 C 0,1 UV-I 4,1 C 28 % 46 % 100 % 1008,0 hPa 0,0 l/m 8,4 km/h (2 Bft) 2 min 0 min 10,8 km/h (2 Bft)
27.10.2012 16:52 20,2 C 6,8 C 0,1 UV-I 4,1 C 28 % 46 % 100 % 1008,0 hPa 0,0 l/m 7,6 km/h (2 Bft) 2 min 0 min 12,8 km/h (3 Bft)
27.10.2012 16:54 20,2 C 6,8 C 0,0 UV-I 4,0 C 28 % 46 % 100 % 1008,0 hPa 0,0 l/m 8,0 km/h (2 Bft) 2 min 0 min 19,3 km/h (3 Bft)
27.10.2012 16:56 20,2 C 6,8 C 0,0 UV-I 3,6 C 28 % 46 % 100 % 1008,0 hPa 0,0 l/m 8,4 km/h (2 Bft) 2 min 0 min 14,9 km/h (3 Bft)
27.10.2012 16:58 20,2 C 6,8 C 0,0 UV-I 3,1 C 28 % 47 % 89 % 1008,0 hPa 0,0 l/m 9,2 km/h (2 Bft) 2 min 0 min 15,7 km/h (3 Bft)
27.10.2012 17:00 20,1 C 6,8 C 0,0 UV-I 2,3 C 28 % 47 % 66 % 1008,0 hPa 0,0 l/m 11,2 km/h (2 Bft) 2 min 0 min 16,1 km/h (3 Bft)
27.10.2012 17:02 20,1 C 6,7 C 0,0 UV-I 1,7 C 28 % 47 % 49 % 1008,0 hPa 0,0 l/m 12,4 km/h (3 Bft) 2 min 0 min 20,9 km/h (4 Bft)
27.10.2012 17:04 20,1 C 6,7 C 0,0 UV-I 1,7 C 28 % 47 % 49 % 1008,0 hPa 0,0 l/m 12,4 km/h (3 Bft) 2 min 0 min 20,9 km/h (4 Bft)
27.10.2012 17:06 20,0 C 6,6 C 0,0 UV-I 0,5 C 28 % 47 % 14 % 1008,9 hPa 0,0 l/m 13,3 km/h (3 Bft) 0 min 0 min 28,9 km/h (5 Bft)
27.10.2012 17:08 20,0 C 6,7 C 0,0 UV-I 0,0 C 28 % 47 % 0 % 1008,9 hPa 0,0 l/m 13,3 km/h (3 Bft) 0 min 0 min 14,1 km/h (3 Bft)
27.10.2012 17:10 20,0 C 6,7 C 0,0 UV-I 0,0 C 28 % 48 % 0 % 1008,9 hPa 0,0 l/m 12,8 km/h (3 Bft) 0 min 0 min 14,9 km/h (3 Bft)
27.10.2012 17:12 19,9 C 6,7 C 0,0 UV-I 0,0 C 28 % 48 % 0 % 1008,9 hPa 0,0 l/m 12,4 km/h (3 Bft) 0 min 0 min 24,1 km/h (4 Bft)
27.10.2012 17:14 19,9 C 6,7 C 0,0 UV-I 0,0 C 28 % 48 % 0 % 1008,9 hPa 0,0 l/m 13,3 km/h (3 Bft) 0 min 0 min 19,3 km/h (3 Bft)
27.10.2012 17:16 19,8 C 6,7 C 0,0 UV-I 0,0 C 29 % 49 % 0 % 1008,9 hPa 0,0 l/m 13,3 km/h (3 Bft) 0 min 0 min 11,2 km/h (2 Bft)
27.10.2012 17:18 19,8 C 6,7 C 0,0 UV-I 0,0 C 29 % 50 % 0 % 1008,9 hPa 0,0 l/m 12,4 km/h (3 Bft) 0 min 0 min 17,3 km/h (3 Bft)
27.10.2012 17:20 19,8 C 6,5 C 0,0 UV-I 0,0 C 29 % 50 % 0 % 1008,9 hPa 0,0 l/m 12,4 km/h (3 Bft) 0 min 0 min 15,3 km/h (3 Bft)
27.10.2012 17:22 19,7 C 6,5 C 0,0 UV-I 0,0 C 29 % 51 % 0 % 1008,9 hPa 0,0 l/m 12,0 km/h (2 Bft) 0 min 0 min 13,7 km/h (3 Bft)
27.10.2012 17:24 19,7 C 6,4 C 0,0 UV-I 0,0 C 29 % 52 % 0 % 1008,9 hPa 0,0 l/m 12,0 km/h (2 Bft) 0 min 0 min 13,7 km/h (3 Bft)
27.10.2012 17:26 19,6 C 6,4 C 0,0 UV-I 0,0 C 29 % 53 % 0 % 1009,1 hPa 0,0 l/m 9,6 km/h (2 Bft) 0 min 0 min 12,4 km/h (3 Bft)
27.10.2012 17:28 19,6 C 6,4 C 0,0 UV-I 0,0 C 29 % 54 % 0 % 1009,1 hPa 0,0 l/m 9,6 km/h (2 Bft) 0 min 0 min 21,3 km/h (4 Bft)
27.10.2012 17:30 19,6 C 6,4 C 0,0 UV-I 0,0 C 29 % 54 % 0 % 1009,1 hPa 0,0 l/m 10,0 km/h (2 Bft) 0 min 0 min 21,7 km/h (4 Bft)
27.10.2012 17:32 19,5 C 6,4 C 0,0 UV-I 0,0 C 29 % 55 % 0 % 1009,1 hPa 0,0 l/m 10,4 km/h (2 Bft) 0 min 0 min 17,3 km/h (3 Bft)
27.10.2012 17:34 19,5 C 6,3 C 0,0 UV-I 0,0 C 29 % 55 % 0 % 1009,1 hPa 0,0 l/m 11,2 km/h (2 Bft) 0 min 0 min 8,0 km/h (2 Bft)
27.10.2012 17:36 19,5 C 6,3 C 0,0 UV-I 0,0 C 29 % 56 % 0 % 1009,1 hPa 0,0 l/m 11,6 km/h (2 Bft) 0 min 0 min 9,2 km/h (2 Bft)
27.10.2012 17:38 19,4 C 6,2 C 0,0 UV-I 0,0 C 29 % 56 % 0 % 1009,1 hPa 0,0 l/m 12,0 km/h (2 Bft) 0 min 0 min 11,2 km/h (2 Bft)
27.10.2012 17:40 19,2 C 6,3 C 0,0 UV-I 0,0 C 29 % 56 % 0 % 1009,1 hPa 0,0 l/m 11,6 km/h (2 Bft) 0 min 0 min 14,1 km/h (3 Bft)
27.10.2012 17:42 19,3 C 6,2 C 0,0 UV-I 0,0 C 29 % 57 % 0 % 1009,1 hPa 0,0 l/m 10,8 km/h (2 Bft) 0 min 0 min 12,4 km/h (3 Bft)
27.10.2012 17:44 19,3 C 6,2 C 0,0 UV-I 0,0 C 29 % 58 % 0 % 1009,1 hPa 0,0 l/m 10,8 km/h (2 Bft) 0 min 0 min 12,4 km/h (3 Bft)
27.10.2012 17:46 19,2 C 6,1 C 0,0 UV-I 0,0 C 30 % 58 % 0 % 1009,4 hPa 0,0 l/m 10,0 km/h (2 Bft) 0 min 0 min 9,6 km/h (2 Bft)
27.10.2012 17:48 19,1 C 6,1 C 0,0 UV-I 0,0 C 30 % 59 % 0 % 1009,4 hPa 0,0 l/m 10,4 km/h (2 Bft) 0 min 0 min 6,0 km/h (2 Bft)
27.10.2012 17:50 19,1 C 6,1 C 0,0 UV-I 0,0 C 30 % 59 % 0 % 1009,4 hPa 0,0 l/m 10,8 km/h (2 Bft) 0 min 0 min 12,0 km/h (2 Bft)
27.10.2012 17:52 19,0 C 6,1 C 0,0 UV-I 0,0 C 30 % 59 % 0 % 1009,4 hPa 0,0 l/m 10,0 km/h (2 Bft) 0 min 0 min 5,2 km/h (1 Bft)
27.10.2012 17:54 18,9 C 6,0 C 0,0 UV-I 0,0 C 30 % 60 % 0 % 1009,4 hPa 0,0 l/m 8,8 km/h (2 Bft) 0 min 0 min 9,6 km/h (2 Bft)
27.10.2012 17:56 18,8 C 6,0 C 0,0 UV-I 0,0 C 30 % 60 % 0 % 1009,4 hPa 0,0 l/m 8,4 km/h (2 Bft) 0 min 0 min 10,8 km/h (2 Bft)
27.10.2012 17:58 18,8 C 6,0 C 0,0 UV-I 0,0 C 30 % 60 % 0 % 1009,4 hPa 0,0 l/m 8,4 km/h (2 Bft) 0 min 0 min 10,0 km/h (2 Bft)
27.10.2012 18:00 18,7 C 5,9 C 0,0 UV-I 0,0 C 30 % 60 % 0 % 1009,4 hPa 0,0 l/m 7,2 km/h (2 Bft) 0 min 0 min 7,6 km/h (2 Bft)
27.10.2012 18:02 18,7 C 5,9 C 0,0 UV-I 0,0 C 30 % 60 % 0 % 1009,4 hPa 0,0 l/m 6,8 km/h (2 Bft) 0 min 0 min 4,4 km/h (1 Bft)
27.10.2012 18:04 18,7 C 5,9 C 0,0 UV-I 0,0 C 30 % 60 % 0 % 1009,4 hPa 0,0 l/m 6,8 km/h (2 Bft) 0 min 0 min 4,4 km/h (1 Bft)
27.10.2012 18:06 18,5 C 5,9 C 0,0 UV-I 0,0 C 31 % 60 % 0 % 1009,6 hPa 0,0 l/m 6,0 km/h (2 Bft) 0 min 0 min 5,2 km/h (1 Bft)
27.10.2012 18:08 18,4 C 5,7 C 0,0 UV-I 0,0 C 31 % 60 % 0 % 1009,6 hPa 0,0 l/m 5,6 km/h (1 Bft) 0 min 0 min 0,0 km/h (0 Bft)
27.10.2012 18:10 18,4 C 5,6 C 0,0 UV-I 0,0 C 31 % 60 % 0 % 1009,6 hPa 0,0 l/m 4,8 km/h (1 Bft) 0 min 0 min 8,4 km/h (2 Bft)
27.10.2012 18:12 18,3 C 5,6 C 0,0 UV-I 0,0 C 31 % 61 % 0 % 1009,6 hPa 0,0 l/m 4,0 km/h (1 Bft) 0 min 0 min 7,2 km/h (2 Bft)
27.10.2012 18:14 18,2 C 5,5 C 0,0 UV-I 0,0 C 31 % 61 % 0 % 1009,6 hPa 0,0 l/m 3,6 km/h (1 Bft) 0 min 0 min 0,0 km/h (0 Bft)
27.10.2012 18:16 18,1 C 5,5 C 0,0 UV-I 0,0 C 31 % 61 % 0 % 1009,6 hPa 0,0 l/m 2,8 km/h (1 Bft) 0 min 0 min 4,0 km/h (1 Bft)
27.10.2012 18:18 18,0 C 5,5 C 0,0 UV-I 0,0 C 32 % 61 % 0 % 1009,6 hPa 0,0 l/m 2,4 km/h (1 Bft) 0 min 0 min 0,0 km/h (0 Bft)
27.10.2012 18:20 18,0 C 5,4 C 0,0 UV-I 0,0 C 32 % 61 % 0 % 1009,6 hPa 0,0 l/m 2,8 km/h (1 Bft) 0 min 0 min 9,2 km/h (2 Bft)
27.10.2012 18:22 17,9 C 5,2 C 0,0 UV-I 0,0 C 32 % 62 % 0 % 1009,6 hPa 0,0 l/m 2,4 km/h (1 Bft) 0 min 0 min 0,0 km/h (0 Bft)
27.10.2012 18:24 17,9 C 5,2 C 0,0 UV-I 0,0 C 32 % 63 % 0 % 1009,6 hPa 0,0 l/m 2,4 km/h (1 Bft) 0 min 0 min 0,0 km/h (0 Bft)
27.10.2012 18:26 17,8 C 5,2 C 0,0 UV-I 0,0 C 32 % 63 % 0 % 1009,9 hPa 0,0 l/m 2,4 km/h (1 Bft) 0 min 0 min 5,6 km/h (1 Bft)
27.10.2012 18:28 17,7 C 5,1 C 0,0 UV-I 0,0 C 32 % 63 % 0 % 1009,9 hPa 0,0 l/m 2,8 km/h (1 Bft) 0 min 0 min 4,8 km/h (1 Bft)
27.10.2012 18:30 17,7 C 5,0 C 0,0 UV-I 0,0 C 32 % 63 % 0 % 1009,9 hPa 0,0 l/m 3,2 km/h (1 Bft) 0 min 0 min 6,4 km/h (2 Bft)
27.10.2012 18:32 17,6 C 5,1 C 0,0 UV-I 0,0 C 32 % 64 % 0 % 1009,9 hPa 0,0 l/m 2,4 km/h (1 Bft) 0 min 0 min 0,0 km/h (0 Bft)
27.10.2012 18:34 17,6 C 4,9 C 0,0 UV-I 0,0 C 32 % 64 % 0 % 1009,9 hPa 0,0 l/m 2,4 km/h (1 Bft) 0 min 0 min 0,0 km/h (0 Bft)
27.10.2012 18:36 17,5 C 4,9 C 0,0 UV-I 0,0 C 33 % 64 % 0 % 1009,9 hPa 0,0 l/m 2,0 km/h (1 Bft) 0 min 0 min 0,0 km/h (0 Bft)
27.10.2012 18:38 17,5 C 4,8 C 0,0 UV-I 0,0 C 33 % 64 % 0 % 1009,9 hPa 0,0 l/m 1,6 km/h (1 Bft) 0 min 0 min 6,0 km/h (2 Bft)
27.10.2012 18:40 17,4 C 4,8 C 0,0 UV-I 0,0 C 33 % 64 % 0 % 1009,9 hPa 0,0 l/m 0,8 km/h (0 Bft) 0 min 0 min 0,0 km/h (0 Bft)
27.10.2012 18:42 17,4 C 4,7 C 0,0 UV-I 0,0 C 33 % 64 % 0 % 1009,9 hPa 0,0 l/m 0,4 km/h (0 Bft) 0 min 0 min 0,0 km/h (0 Bft)
27.10.2012 18:44 17,4 C 4,7 C 0,0 UV-I 0,0 C 33 % 65 % 0 % 1009,9 hPa 0,0 l/m 0,4 km/h (0 Bft) 0 min 0 min 0,0 km/h (0 Bft)
27.10.2012 18:46 17,3 C 4,7 C 0,0 UV-I 0,0 C 33 % 65 % 0 % 1010,4 hPa 0,0 l/m 0,4 km/h (0 Bft) 0 min 0 min 4,0 km/h (1 Bft)
27.10.2012 18:48 17,2 C 4,6 C 0,0 UV-I 0,0 C 33 % 66 % 0 % 1010,4 hPa 0,0 l/m 0,8 km/h (0 Bft) 0 min 0 min 4,0 km/h (1 Bft)
27.10.2012 18:50 17,2 C 4,5 C 0,0 UV-I 0,0 C 33 % 66 % 0 % 1010,4 hPa 0,0 l/m 0,8 km/h (0 Bft) 0 min 0 min 5,6 km/h (1 Bft)
27.10.2012 18:52 17,2 C 4,5 C 0,0 UV-I 0,0 C 33 % 66 % 0 % 1010,4 hPa 0,0 l/m 1,2 km/h (1 Bft) 0 min 0 min 8,4 km/h (2 Bft)
27.10.2012 18:54 17,1 C 4,6 C 0,0 UV-I 0,0 C 34 % 67 % 0 % 1010,4 hPa 0,0 l/m 2,0 km/h (1 Bft) 0 min 0 min 6,4 km/h (2 Bft)
27.10.2012 18:56 17,1 C 4,5 C 0,0 UV-I 0,0 C 34 % 67 % 0 % 1010,4 hPa 0,0 l/m 2,0 km/h (1 Bft) 0 min 0 min 0,0 km/h (0 Bft)
27.10.2012 18:58 17,0 C 4,7 C 0,0 UV-I 0,0 C 34 % 67 % 0 % 1010,4 hPa 0,0 l/m 2,4 km/h (1 Bft) 0 min 0 min 7,6 km/h (2 Bft)
27.10.2012 19:00 17,0 C 4,7 C 0,0 UV-I 0,0 C 34 % 67 % 0 % 1010,4 hPa 0,0 l/m 2,8 km/h (1 Bft) 0 min 0 min 0,0 km/h (0 Bft)
27.10.2012 19:02 17,0 C 4,7 C 0,0 UV-I 0,0 C 34 % 67 % 0 % 1010,4 hPa 0,0 l/m 2,4 km/h (1 Bft) 0 min 0 min 0,0 km/h (0 Bft)
27.10.2012 19:04 17,0 C 4,7 C 0,0 UV-I 0,0 C 34 % 67 % 0 % 1010,4 hPa 0,0 l/m 2,4 km/h (1 Bft) 0 min 0 min 0,0 km/h (0 Bft)
27.10.2012 19:06 16,9 C 4,7 C 0,0 UV-I 0,0 C 34 % 67 % 0 % 1011,0 hPa 0,0 l/m 1,2 km/h (1 Bft) 0 min 0 min 0,0 km/h (0 Bft)
27.10.2012 19:08 16,9 C 4,5 C 0,0 UV-I 0,0 C 34 % 68 % 0 % 1011,0 hPa 0,0 l/m 1,2 km/h (1 Bft) 0 min 0 min 4,4 km/h (1 Bft)
27.10.2012 19:10 16,8 C 4,5 C 0,0 UV-I 0,0 C 34 % 68 % 0 % 1011,0 hPa 0,0 l/m 1,2 km/h (1 Bft) 0 min 0 min 6,8 km/h (2 Bft)
27.10.2012 19:12 16,8 C 4,5 C 0,0 UV-I 0,0 C 35 % 69 % 0 % 1011,0 hPa 0,0 l/m 2,4 km/h (1 Bft) 0 min 0 min 11,2 km/h (2 Bft)
27.10.2012 19:14 16,8 C 4,5 C 0,0 UV-I 0,0 C 35 % 69 % 0 % 1011,0 hPa 0,0 l/m 3,2 km/h (1 Bft) 0 min 0 min 9,2 km/h (2 Bft)
27.10.2012 19:16 16,8 C 4,5 C 0,0 UV-I 0,0 C 35 % 69 % 0 % 1011,0 hPa 0,0 l/m 5,2 km/h (1 Bft) 0 min 0 min 11,2 km/h (2 Bft)
27.10.2012 19:18 16,7 C 4,5 C 0,0 UV-I 0,0 C 35 % 69 % 0 % 1011,0 hPa 0,0 l/m 6,4 km/h (2 Bft) 0 min 0 min 8,8 km/h (2 Bft)
27.10.2012 19:20 16,7 C 4,6 C 0,0 UV-I 0,0 C 35 % 70 % 0 % 1011,0 hPa 0,0 l/m 7,2 km/h (2 Bft) 0 min 0 min 9,2 km/h (2 Bft)
27.10.2012 19:22 16,6 C 4,5 C 0,0 UV-I 0,0 C 35 % 70 % 0 % 1011,0 hPa 0,0 l/m 7,6 km/h (2 Bft) 0 min 0 min 10,4 km/h (2 Bft)
27.10.2012 19:24 16,6 C 4,5 C 0,0 UV-I 0,0 C 35 % 70 % 0 % 1011,0 hPa 0,0 l/m 7,6 km/h (2 Bft) 0 min 0 min 10,4 km/h (2 Bft)
27.10.2012 19:26 16,6 C 4,5 C 0,0 UV-I 0,0 C 35 % 70 % 0 % 1011,2 hPa 0,0 l/m 6,8 km/h (2 Bft) 0 min 0 min 11,6 km/h (2 Bft)
27.10.2012 19:28 16,6 C 4,5 C 0,0 UV-I 0,0 C 35 % 70 % 0 % 1011,2 hPa 0,0 l/m 6,8 km/h (2 Bft) 0 min 0 min 11,6 km/h (2 Bft)
27.10.2012 19:30 16,6 C 4,5 C 0,0 UV-I 0,0 C 35 % 70 % 0 % 1011,2 hPa 0,0 l/m 6,8 km/h (2 Bft) 0 min 0 min 14,1 km/h (3 Bft)
27.10.2012 19:32 16,5 C 4,5 C 0,0 UV-I 0,0 C 35 % 70 % 0 % 1011,2 hPa 0,0 l/m 7,2 km/h (2 Bft) 0 min 0 min 10,0 km/h (2 Bft)
27.10.2012 19:34 16,5 C 4,5 C 0,0 UV-I 0,0 C 35 % 70 % 0 % 1011,2 hPa 0,0 l/m 7,6 km/h (2 Bft) 0 min 0 min 6,4 km/h (2 Bft)
27.10.2012 19:36 16,5 C 4,5 C 0,0 UV-I 0,0 C 35 % 70 % 0 % 1011,2 hPa 0,0 l/m 8,0 km/h (2 Bft) 0 min 0 min 11,2 km/h (2 Bft)
27.10.2012 19:38 16,5 C 4,4 C 0,0 UV-I 0,0 C 35 % 70 % 0 % 1011,2 hPa 0,0 l/m 8,0 km/h (2 Bft) 0 min 0 min 6,8 km/h (2 Bft)
27.10.2012 19:40 16,4 C 4,5 C 0,0 UV-I 0,0 C 36 % 70 % 0 % 1011,2 hPa 0,0 l/m 7,2 km/h (2 Bft) 0 min 0 min 6,0 km/h (2 Bft)
27.10.2012 19:42 16,4 C 4,4 C 0,0 UV-I 0,0 C 36 % 70 % 0 % 1011,2 hPa 0,0 l/m 6,0 km/h (2 Bft) 0 min 0 min 0,0 km/h (0 Bft)
27.10.2012 19:44 16,4 C 4,4 C 0,0 UV-I 0,0 C 36 % 70 % 0 % 1011,2 hPa 0,0 l/m 6,0 km/h (2 Bft) 0 min 0 min 0,0 km/h (0 Bft)
27.10.2012 19:46 16,4 C 4,3 C 0,0 UV-I 0,0 C 36 % 70 % 0 % 1011,1 hPa 0,0 l/m 4,4 km/h (1 Bft) 0 min 0 min 0,0 km/h (0 Bft)
27.10.2012 19:48 16,4 C 4,3 C 0,0 UV-I 0,0 C 36 % 70 % 0 % 1011,1 hPa 0,0 l/m 3,6 km/h (1 Bft) 0 min 0 min 4,0 km/h (1 Bft)
27.10.2012 19:50 16,4 C 4,2 C 0,0 UV-I 0,0 C 36 % 70 % 0 % 1011,1 hPa 0,0 l/m 3,6 km/h (1 Bft) 0 min 0 min 4,0 km/h (1 Bft)
27.10.2012 19:52 16,2 C 4,3 C 0,0 UV-I 0,0 C 36 % 70 % 0 % 1011,1 hPa 0,0 l/m 3,2 km/h (1 Bft) 0 min 0 min 0,0 km/h (0 Bft)
27.10.2012 19:54 16,2 C 4,2 C 0,0 UV-I 0,0 C 36 % 70 % 0 % 1011,1 hPa 0,0 l/m 2,8 km/h (1 Bft) 0 min 0 min 0,0 km/h (0 Bft)
27.10.2012 19:56 16,2 C 4,1 C 0,0 UV-I 0,0 C 36 % 70 % 0 % 1011,1 hPa 0,0 l/m 2,0 km/h (1 Bft) 0 min 0 min 0,0 km/h (0 Bft)
27.10.2012 19:58 16,3 C 4,0 C 0,0 UV-I 0,0 C 36 % 70 % 0 % 1011,1 hPa 0,0 l/m 1,6 km/h (1 Bft) 0 min 0 min 0,0 km/h (0 Bft)
27.10.2012 20:00 16,3 C 3,9 C 0,0 UV-I 0,0 C 36 % 71 % 0 % 1011,1 hPa 0,0 l/m 1,2 km/h (1 Bft) 0 min 0 min 0,0 km/h (0 Bft)
27.10.2012 20:02 16,3 C 3,9 C 0,0 UV-I 0,0 C 36 % 71 % 0 % 1011,1 hPa 0,0 l/m 1,2 km/h (1 Bft) 0 min 0 min 6,0 km/h (2 Bft)
27.10.2012 20:04 16,3 C 3,8 C 0,0 UV-I 0,0 C 36 % 71 % 0 % 1011,1 hPa 0,0 l/m 1,2 km/h (1 Bft) 0 min 0 min 6,0 km/h (2 Bft)
27.10.2012 20:06 16,2 C 3,7 C 0,0 UV-I 0,0 C 36 % 71 % 0 % 1011,5 hPa 0,0 l/m 0,8 km/h (0 Bft) 0 min 0 min 0,0 km/h (0 Bft)
27.10.2012 20:08 16,2 C 3,7 C 0,0 UV-I 0,0 C 36 % 71 % 0 % 1011,5 hPa 0,0 l/m 0,8 km/h (0 Bft) 0 min 0 min 0,0 km/h (0 Bft)
27.10.2012 20:10 16,2 C 3,6 C 0,0 UV-I 0,0 C 36 % 71 % 0 % 1011,5 hPa 0,0 l/m 0,8 km/h (0 Bft) 0 min 0 min 5,2 km/h (1 Bft)
27.10.2012 20:12 16,2 C 3,6 C 0,0 UV-I 0,0 C 36 % 71 % 0 % 1011,5 hPa 0,0 l/m 0,8 km/h (0 Bft) 0 min 0 min 0,0 km/h (0 Bft)
27.10.2012 20:14 16,2 C 3,5 C 0,0 UV-I 0,0 C 36 % 71 % 0 % 1011,5 hPa 0,0 l/m 0,0 km/h (0 Bft) 0 min 0 min 0,0 km/h (0 Bft)
27.10.2012 20:16 16,1 C 3,4 C 0,0 UV-I 0,0 C 36 % 71 % 0 % 1011,5 hPa 0,0 l/m 0,0 km/h (0 Bft) 0 min 0 min 0,0 km/h (0 Bft)
27.10.2012 20:18 16,1 C 3,4 C 0,0 UV-I 0,0 C 36 % 72 % 0 % 1011,5 hPa 0,0 l/m 0,0 km/h (0 Bft) 0 min 0 min 0,0 km/h (0 Bft)
27.10.2012 20:20 16,1 C 3,3 C 0,0 UV-I 0,0 C 37 % 72 % 0 % 1011,5 hPa 0,0 l/m 0,0 km/h (0 Bft) 0 min 0 min 0,0 km/h (0 Bft)
27.10.2012 20:22 16,1 C 3,2 C 0,0 UV-I 0,0 C 37 % 72 % 0 % 1011,5 hPa 0,0 l/m 0,0 km/h (0 Bft) 0 min 0 min 0,0 km/h (0 Bft)
27.10.2012 20:24 16,1 C 3,3 C 0,0 UV-I 0,0 C 37 % 72 % 0 % 1011,5 hPa 0,0 l/m 0,0 km/h (0 Bft) 0 min 0 min 0,0 km/h (0 Bft)
27.10.2012 20:26 15,9 C 3,1 C 0,0 UV-I 0,0 C 37 % 72 % 0 % 1011,9 hPa 0,0 l/m 0,0 km/h (0 Bft) 0 min 0 min 0,0 km/h (0 Bft)
27.10.2012 20:28 15,9 C 3,1 C 0,0 UV-I 0,0 C 37 % 72 % 0 % 1011,9 hPa 0,0 l/m 0,0 km/h (0 Bft) 0 min 0 min 0,0 km/h (0 Bft)
27.10.2012 20:30 15,9 C 3,0 C 0,0 UV-I 0,0 C 37 % 73 % 0 % 1011,9 hPa 0,0 l/m 0,0 km/h (0 Bft) 0 min 0 min 0,0 km/h (0 Bft)
27.10.2012 20:32 16,0 C 2,9 C 0,0 UV-I 0,0 C 38 % 73 % 0 % 1011,9 hPa 0,0 l/m 0,0 km/h (0 Bft) 0 min 0 min 0,0 km/h (0 Bft)
27.10.2012 20:34 16,0 C 2,8 C 0,0 UV-I 0,0 C 38 % 73 % 0 % 1011,9 hPa 0,0 l/m 0,0 km/h (0 Bft) 0 min 0 min 0,0 km/h (0 Bft)
27.10.2012 20:36 16,0 C 2,9 C 0,0 UV-I 0,0 C 38 % 73 % 0 % 1011,9 hPa 0,0 l/m 0,0 km/h (0 Bft) 0 min 0 min 0,0 km/h (0 Bft)
27.10.2012 20:38 16,0 C 2,7 C 0,0 UV-I 0,0 C 38 % 73 % 0 % 1011,9 hPa 0,0 l/m 0,0 km/h (0 Bft) 0 min 0 min 0,0 km/h (0 Bft)
27.10.2012 20:40 15,9 C 2,7 C 0,0 UV-I 0,0 C 38 % 73 % 0 % 1011,9 hPa 0,0 l/m 0,0 km/h (0 Bft) 0 min 0 min 0,0 km/h (0 Bft)
27.10.2012 20:42 15,9 C 2,5 C 0,0 UV-I 0,0 C 38 % 73 % 0 % 1011,9 hPa 0,0 l/m 0,0 km/h (0 Bft) 0 min 0 min 0,0 km/h (0 Bft)
27.10.2012 20:44 15,9 C 2,4 C 0,0 UV-I 0,0 C 38 % 73 % 0 % 1011,9 hPa 0,0 l/m 0,0 km/h (0 Bft) 0 min 0 min 0,0 km/h (0 Bft)
27.10.2012 20:46 15,9 C 2,4 C 0,0 UV-I 0,0 C 38 % 74 % 0 % 1012,1 hPa 0,0 l/m 0,0 km/h (0 Bft) 0 min 0 min 0,0 km/h (0 Bft)
27.10.2012 20:48 15,8 C 2,3 C 0,0 UV-I 0,0 C 38 % 74 % 0 % 1012,1 hPa 0,0 l/m 0,0 km/h (0 Bft) 0 min 0 min 0,0 km/h (0 Bft)
27.10.2012 20:50 15,8 C 2,3 C 0,0 UV-I 0,0 C 38 % 74 % 0 % 1012,1 hPa 0,0 l/m 0,0 km/h (0 Bft) 0 min 0 min 0,0 km/h (0 Bft)
27.10.2012 20:52 15,8 C 2,2 C 0,0 UV-I 0,0 C 38 % 74 % 0 % 1012,1 hPa 0,0 l/m 0,0 km/h (0 Bft) 0 min 0 min 0,0 km/h (0 Bft)
27.10.2012 20:54 15,8 C 2,1 C 0,0 UV-I 0,0 C 38 % 74 % 0 % 1012,1 hPa 0,0 l/m 0,0 km/h (0 Bft) 0 min 0 min 0,0 km/h (0 Bft)
27.10.2012 20:56 15,8 C 2,0 C 0,0 UV-I 0,0 C 38 % 74 % 0 % 1012,1 hPa 0,0 l/m 0,0 km/h (0 Bft) 0 min 0 min 0,0 km/h (0 Bft)
27.10.2012 20:58 15,8 C 2,0 C 0,0 UV-I 0,0 C 38 % 75 % 0 % 1012,1 hPa 0,0 l/m 0,0 km/h (0 Bft) 0 min 0 min 0,0 km/h (0 Bft)
27.10.2012 21:00 15,6 C 2,0 C 0,0 UV-I 0,0 C 38 % 75 % 0 % 1012,1 hPa 0,0 l/m 0,0 km/h (0 Bft) 0 min 0 min 0,0 km/h (0 Bft)
27.10.2012 21:02 15,6 C 1,9 C 0,0 UV-I 0,0 C 38 % 76 % 0 % 1012,1 hPa 0,0 l/m 0,0 km/h (0 Bft) 0 min 0 min 0,0 km/h (0 Bft)
27.10.2012 21:04 15,6 C 1,9 C 0,0 UV-I 0,0 C 38 % 76 % 0 % 1012,1 hPa 0,0 l/m 0,0 km/h (0 Bft) 0 min 0 min 0,0 km/h (0 Bft)
27.10.2012 21:06 15,6 C 1,9 C 0,0 UV-I 0,0 C 38 % 76 % 0 % 1012,3 hPa 0,0 l/m 0,0 km/h (0 Bft) 0 min 0 min 0,0 km/h (0 Bft)
27.10.2012 21:08 15,7 C 1,9 C 0,0 UV-I 0,0 C 38 % 76 % 0 % 1012,3 hPa 0,0 l/m 0,0 km/h (0 Bft) 0 min 0 min 0,0 km/h (0 Bft)
27.10.2012 21:10 15,6 C 1,9 C 0,0 UV-I 0,0 C 38 % 76 % 0 % 1012,3 hPa 0,0 l/m 0,0 km/h (0 Bft) 0 min 0 min 0,0 km/h (0 Bft)
27.10.2012 21:12 15,6 C 1,8 C 0,0 UV-I 0,0 C 39 % 76 % 0 % 1012,3 hPa 0,0 l/m 0,0 km/h (0 Bft) 0 min 0 min 0,0 km/h (0 Bft)
27.10.2012 21:14 15,6 C 1,7 C 0,0 UV-I 0,0 C 39 % 77 % 0 % 1012,3 hPa 0,0 l/m 0,0 km/h (0 Bft) 0 min 0 min 0,0 km/h (0 Bft)
27.10.2012 21:16 15,6 C 1,7 C 0,0 UV-I 0,0 C 39 % 77 % 0 % 1012,3 hPa 0,0 l/m 0,0 km/h (0 Bft) 0 min 0 min 0,0 km/h (0 Bft)
27.10.2012 21:18 15,6 C 1,6 C 0,0 UV-I 0,0 C 39 % 77 % 0 % 1012,3 hPa 0,0 l/m 0,0 km/h (0 Bft) 0 min 0 min 0,0 km/h (0 Bft)
27.10.2012 21:20 15,6 C 1,6 C 0,0 UV-I 0,0 C 39 % 77 % 0 % 1012,3 hPa 0,0 l/m 0,0 km/h (0 Bft) 0 min 0 min 0,0 km/h (0 Bft)
27.10.2012 21:22 15,6 C 1,6 C 0,0 UV-I 0,0 C 39 % 77 % 0 % 1012,3 hPa 0,0 l/m 0,0 km/h (0 Bft) 0 min 0 min 0,0 km/h (0 Bft)
27.10.2012 21:24 15,6 C 1,5 C 0,0 UV-I 0,0 C 39 % 77 % 0 % 1012,3 hPa 0,0 l/m 0,0 km/h (0 Bft) 0 min 0 min 0,0 km/h (0 Bft)
27.10.2012 21:26 15,6 C 1,5 C 0,0 UV-I 0,0 C 39 % 78 % 0 % 1012,6 hPa 0,0 l/m 0,0 km/h (0 Bft) 0 min 0 min 0,0 km/h (0 Bft)
27.10.2012 21:28 15,6 C 1,5 C 0,0 UV-I 0,0 C 39 % 78 % 0 % 1012,6 hPa 0,0 l/m 0,0 km/h (0 Bft) 0 min 0 min 0,0 km/h (0 Bft)
27.10.2012 21:30 15,4 C 1,5 C 0,0 UV-I 0,0 C 39 % 78 % 0 % 1012,6 hPa 0,0 l/m 0,0 km/h (0 Bft) 0 min 0 min 0,0 km/h (0 Bft)
27.10.2012 21:32 15,5 C 1,3 C 0,0 UV-I 0,0 C 39 % 78 % 0 % 1012,6 hPa 0,0 l/m 0,0 km/h (0 Bft) 0 min 0 min 0,0 km/h (0 Bft)
27.10.2012 21:34 15,5 C 1,3 C 0,0 UV-I 0,0 C 39 % 78 % 0 % 1012,6 hPa 0,0 l/m 0,0 km/h (0 Bft) 0 min 2 min 0,0 km/h (0 Bft)
27.10.2012 21:36 15,5 C 1,2 C 0,0 UV-I 0,0 C 39 % 78 % 0 % 1012,6 hPa 0,0 l/m 0,0 km/h (0 Bft) 0 min 0 min 0,0 km/h (0 Bft)
27.10.2012 21:38 15,5 C 1,2 C 0,0 UV-I 0,0 C 39 % 78 % 0 % 1012,6 hPa 0,0 l/m 0,0 km/h (0 Bft) 0 min 0 min 0,0 km/h (0 Bft)
27.10.2012 21:40 15,5 C 1,3 C 0,0 UV-I 0,0 C 39 % 78 % 0 % 1012,6 hPa 0,0 l/m 0,0 km/h (0 Bft) 0 min 0 min 0,0 km/h (0 Bft)
27.10.2012 21:42 15,3 C 1,1 C 0,0 UV-I 0,0 C 39 % 78 % 0 % 1012,6 hPa 0,0 l/m 0,0 km/h (0 Bft) 0 min 0 min 0,0 km/h (0 Bft)
27.10.2012 21:44 15,3 C 1,1 C 0,0 UV-I 0,0 C 39 % 78 % 0 % 1012,6 hPa 0,0 l/m 0,0 km/h (0 Bft) 0 min 0 min 0,0 km/h (0 Bft)
27.10.2012 21:46 15,3 C 1,1 C 0,0 UV-I 0,0 C 39 % 79 % 0 % 1012,8 hPa 0,0 l/m 0,0 km/h (0 Bft) 0 min 2 min 0,0 km/h (0 Bft)
27.10.2012 21:48 15,4 C 1,1 C 0,0 UV-I 0,0 C 39 % 79 % 0 % 1012,8 hPa 0,0 l/m 0,0 km/h (0 Bft) 0 min 0 min 0,0 km/h (0 Bft)
27.10.2012 21:50 15,4 C 0,9 C 0,0 UV-I 0,0 C 39 % 79 % 0 % 1012,8 hPa 0,0 l/m 0,0 km/h (0 Bft) 0 min 0 min 0,0 km/h (0 Bft)
27.10.2012 21:52 15,4 C 0,9 C 0,0 UV-I 0,0 C 39 % 79 % 0 % 1012,8 hPa 0,0 l/m 0,0 km/h (0 Bft) 0 min 0 min 0,0 km/h (0 Bft)
27.10.2012 21:54 15,4 C 0,9 C 0,0 UV-I 0,0 C 39 % 79 % 0 % 1012,8 hPa 0,0 l/m 0,0 km/h (0 Bft) 0 min 0 min 0,0 km/h (0 Bft)
27.10.2012 21:56 15,4 C 0,9 C 0,0 UV-I 0,0 C 39 % 79 % 0 % 1012,8 hPa 0,0 l/m 0,0 km/h (0 Bft) 0 min 0 min 0,0 km/h (0 Bft)
27.10.2012 21:58 15,4 C 0,8 C 0,0 UV-I 0,0 C 39 % 80 % 0 % 1012,8 hPa 0,0 l/m 0,0 km/h (0 Bft) 0 min 0 min 0,0 km/h (0 Bft)
27.10.2012 22:00 15,4 C 0,8 C 0,0 UV-I 0,0 C 39 % 80 % 0 % 1012,8 hPa 0,0 l/m 0,0 km/h (0 Bft) 0 min 0 min 0,0 km/h (0 Bft)
27.10.2012 22:02 15,2 C 0,8 C 0,0 UV-I 0,0 C 39 % 80 % 0 % 1012,8 hPa 0,0 l/m 0,0 km/h (0 Bft) 0 min 0 min 0,0 km/h (0 Bft)
27.10.2012 22:04 15,2 C 0,8 C 0,0 UV-I 0,0 C 39 % 80 % 0 % 1012,8 hPa 0,0 l/m 0,0 km/h (0 Bft) 0 min 0 min 0,0 km/h (0 Bft)
27.10.2012 22:06 15,2 C 0,8 C 0,0 UV-I 0,0 C 39 % 80 % 0 % 1013,2 hPa 0,0 l/m 0,0 km/h (0 Bft) 0 min 0 min 0,0 km/h (0 Bft)
27.10.2012 22:08 15,3 C 0,7 C 0,0 UV-I 0,0 C 39 % 80 % 0 % 1013,2 hPa 0,0 l/m 0,0 km/h (0 Bft) 0 min 0 min 0,0 km/h (0 Bft)
27.10.2012 22:10 15,3 C 0,7 C 0,0 UV-I 0,0 C 39 % 80 % 0 % 1013,2 hPa 0,0 l/m 0,0 km/h (0 Bft) 0 min 0 min 0,0 km/h (0 Bft)
27.10.2012 22:12 15,3 C 0,6 C 0,0 UV-I 0,0 C 39 % 80 % 0 % 1013,2 hPa 0,0 l/m 0,0 km/h (0 Bft) 0 min 0 min 0,0 km/h (0 Bft)
27.10.2012 22:14 15,1 C 0,6 C 0,0 UV-I 0,0 C 39 % 80 % 0 % 1013,2 hPa 0,0 l/m 0,0 km/h (0 Bft) 0 min 0 min 0,0 km/h (0 Bft)
27.10.2012 22:16 15,1 C 0,6 C 0,0 UV-I 0,0 C 39 % 80 % 0 % 1013,2 hPa 0,0 l/m 0,0 km/h (0 Bft) 0 min 0 min 0,0 km/h (0 Bft)
27.10.2012 22:18 15,1 C 0,5 C 0,0 UV-I 0,0 C 39 % 81 % 0 % 1013,2 hPa 0,0 l/m 0,0 km/h (0 Bft) 0 min 0 min 0,0 km/h (0 Bft)
27.10.2012 22:20 15,1 C 0,5 C 0,0 UV-I 0,0 C 39 % 81 % 0 % 1013,2 hPa 0,0 l/m 0,0 km/h (0 Bft) 0 min 2 min 0,0 km/h (0 Bft)
27.10.2012 22:22 15,1 C 0,4 C 0,0 UV-I 0,0 C 39 % 81 % 0 % 1013,2 hPa 0,0 l/m 0,0 km/h (0 Bft) 0 min 0 min 0,0 km/h (0 Bft)
27.10.2012 22:24 15,1 C 0,5 C 0,0 UV-I 0,0 C 39 % 81 % 0 % 1013,2 hPa 0,0 l/m 0,0 km/h (0 Bft) 0 min 0 min 0,0 km/h (0 Bft)
27.10.2012 22:26 15,1 C 0,4 C 0,0 UV-I 0,0 C 40 % 81 % 0 % 1013,5 hPa 0,0 l/m 0,0 km/h (0 Bft) 0 min 0 min 0,0 km/h (0 Bft)
27.10.2012 22:28 15,2 C 0,3 C 0,0 UV-I 0,0 C 39 % 81 % 0 % 1013,5 hPa 0,0 l/m 0,0 km/h (0 Bft) 0 min 0 min 0,0 km/h (0 Bft)
27.10.2012 22:30 15,2 C 0,2 C 0,0 UV-I 0,0 C 40 % 81 % 0 % 1013,5 hPa 0,0 l/m 0,0 km/h (0 Bft) 0 min 0 min 0,0 km/h (0 Bft)
27.10.2012 22:32 15,2 C 0,3 C 0,0 UV-I 0,0 C 40 % 81 % 0 % 1013,5 hPa 0,0 l/m 0,0 km/h (0 Bft) 0 min 0 min 0,0 km/h (0 Bft)
27.10.2012 22:34 15,2 C 0,1 C 0,0 UV-I 0,0 C 40 % 81 % 0 % 1013,5 hPa 0,0 l/m 0,0 km/h (0 Bft) 0 min 0 min 0,0 km/h (0 Bft)
27.10.2012 22:36 15,2 C 0,1 C 0,0 UV-I 0,0 C 40 % 81 % 0 % 1013,5 hPa 0,0 l/m 0,0 km/h (0 Bft) 0 min 0 min 0,0 km/h (0 Bft)
27.10.2012 22:38 15,2 C 0,0 C 0,0 UV-I 0,0 C 39 % 81 % 0 % 1013,5 hPa 0,0 l/m 0,0 km/h (0 Bft) 0 min 0 min 0,0 km/h (0 Bft)
27.10.2012 22:40 15,2 C 0,0 C 0,0 UV-I 0,0 C 40 % 81 % 0 % 1013,5 hPa 0,0 l/m 0,0 km/h (0 Bft) 0 min 0 min 0,0 km/h (0 Bft)
27.10.2012 22:42 15,1 C 0,1 C 0,0 UV-I 0,0 C 39 % 81 % 0 % 1013,5 hPa 0,0 l/m 0,0 km/h (0 Bft) 0 min 0 min 0,0 km/h (0 Bft)
27.10.2012 22:44 15,1 C -0,1 C 0,0 UV-I 0,0 C 39 % 81 % 0 % 1013,5 hPa 0,0 l/m 0,0 km/h (0 Bft) 0 min 0 min 0,0 km/h (0 Bft)
27.10.2012 22:46 15,1 C -0,1 C 0,0 UV-I 0,0 C 40 % 82 % 0 % 1013,4 hPa 0,0 l/m 0,0 km/h (0 Bft) 0 min 0 min 0,0 km/h (0 Bft)
27.10.2012 22:48 15,1 C -0,1 C 0,0 UV-I 0,0 C 40 % 82 % 0 % 1013,4 hPa 0,0 l/m 0,0 km/h (0 Bft) 0 min 0 min 0,0 km/h (0 Bft)
27.10.2012 22:50 15,1 C -0,1 C 0,0 UV-I 0,0 C 40 % 82 % 0 % 1013,4 hPa 0,0 l/m 0,0 km/h (0 Bft) 0 min 0 min 0,0 km/h (0 Bft)
27.10.2012 22:52 15,1 C -0,1 C 0,0 UV-I 0,0 C 40 % 82 % 0 % 1013,4 hPa 0,0 l/m 0,0 km/h (0 Bft) 0 min 0 min 0,0 km/h (0 Bft)
27.10.2012 22:54 14,9 C -0,2 C 0,0 UV-I 0,0 C 40 % 82 % 0 % 1013,4 hPa 0,0 l/m 0,0 km/h (0 Bft) 0 min 0 min 0,0 km/h (0 Bft)
27.10.2012 22:56 15,1 C -0,1 C 0,0 UV-I 0,0 C 40 % 82 % 0 % 1013,4 hPa 0,0 l/m 0,0 km/h (0 Bft) 0 min 0 min 0,0 km/h (0 Bft)
27.10.2012 22:58 14,9 C -0,1 C 0,0 UV-I 0,0 C 40 % 83 % 0 % 1013,4 hPa 0,0 l/m 0,0 km/h (0 Bft) 0 min 0 min 0,0 km/h (0 Bft)
27.10.2012 23:00 14,9 C -0,1 C 0,0 UV-I 0,0 C 40 % 83 % 0 % 1013,4 hPa 0,0 l/m 0,0 km/h (0 Bft) 0 min 0 min 0,0 km/h (0 Bft)
27.10.2012 23:02 14,9 C -0,1 C 0,0 UV-I 0,0 C 40 % 83 % 0 % 1013,4 hPa 0,0 l/m 0,0 km/h (0 Bft) 0 min 0 min 0,0 km/h (0 Bft)
27.10.2012 23:04 14,9 C -0,1 C 0,0 UV-I 0,0 C 40 % 83 % 0 % 1013,4 hPa 0,0 l/m 0,0 km/h (0 Bft) 0 min 0 min 0,0 km/h (0 Bft)
27.10.2012 23:06 15,0 C -0,1 C 0,0 UV-I 0,0 C 40 % 83 % 0 % 1013,8 hPa 0,0 l/m 0,0 km/h (0 Bft) 0 min 0 min 0,0 km/h (0 Bft)
27.10.2012 23:08 15,0 C -0,3 C 0,0 UV-I 0,0 C 40 % 83 % 0 % 1013,8 hPa 0,0 l/m 0,0 km/h (0 Bft) 0 min 0 min 0,0 km/h (0 Bft)
27.10.2012 23:10 15,0 C -0,3 C 0,0 UV-I 0,0 C 40 % 84 % 0 % 1013,8 hPa 0,0 l/m 0,0 km/h (0 Bft) 0 min 0 min 0,0 km/h (0 Bft)
27.10.2012 23:12 15,0 C -0,3 C 0,0 UV-I 0,0 C 40 % 84 % 0 % 1013,8 hPa 0,0 l/m 0,0 km/h (0 Bft) 0 min 0 min 0,0 km/h (0 Bft)
27.10.2012 23:14 15,0 C -0,3 C 0,0 UV-I 0,0 C 40 % 84 % 0 % 1013,8 hPa 0,0 l/m 0,0 km/h (0 Bft) 0 min 0 min 0,0 km/h (0 Bft)
27.10.2012 23:16 15,0 C -0,3 C 0,0 UV-I 0,0 C 40 % 84 % 0 % 1013,8 hPa 0,0 l/m 0,0 km/h (0 Bft) 0 min 0 min 0,0 km/h (0 Bft)
27.10.2012 23:18 14,8 C -0,3 C 0,0 UV-I 0,0 C 40 % 84 % 0 % 1013,8 hPa 0,0 l/m 0,0 km/h (0 Bft) 0 min 0 min 0,0 km/h (0 Bft)
27.10.2012 23:20 15,0 C -0,3 C 0,0 UV-I 0,0 C 40 % 84 % 0 % 1013,8 hPa 0,0 l/m 0,0 km/h (0 Bft) 0 min 0 min 0,0 km/h (0 Bft)
27.10.2012 23:22 14,8 C -0,4 C 0,0 UV-I 0,0 C 40 % 84 % 0 % 1013,8 hPa 0,0 l/m 0,0 km/h (0 Bft) 0 min 0 min 0,0 km/h (0 Bft)
27.10.2012 23:24 14,8 C -0,3 C 0,0 UV-I 0,0 C 40 % 84 % 0 % 1013,8 hPa 0,0 l/m 0,0 km/h (0 Bft) 0 min 0 min 0,0 km/h (0 Bft)
27.10.2012 23:26 14,8 C -0,4 C 0,0 UV-I 0,0 C 40 % 84 % 0 % 1013,5 hPa 0,0 l/m 0,0 km/h (0 Bft) 0 min 0 min 0,0 km/h (0 Bft)
27.10.2012 23:28 14,8 C -0,3 C 0,0 UV-I 0,0 C 40 % 84 % 0 % 1013,5 hPa 0,0 l/m 0,0 km/h (0 Bft) 0 min 0 min 0,0 km/h (0 Bft)
27.10.2012 23:30 14,8 C -0,3 C 0,0 UV-I 0,0 C 40 % 84 % 0 % 1013,5 hPa 0,0 l/m 0,0 km/h (0 Bft) 0 min 0 min 0,0 km/h (0 Bft)
27.10.2012 23:32 14,9 C -0,3 C 0,0 UV-I 0,0 C 40 % 84 % 0 % 1013,5 hPa 0,0 l/m 0,0 km/h (0 Bft) 0 min 0 min 0,0 km/h (0 Bft)
27.10.2012 23:34 14,8 C -0,4 C 0,0 UV-I 0,0 C 40 % 84 % 0 % 1013,5 hPa 0,0 l/m 0,0 km/h (0 Bft) 0 min 0 min 0,0 km/h (0 Bft)
27.10.2012 23:36 14,9 C -0,4 C 0,0 UV-I 0,0 C 40 % 84 % 0 % 1013,5 hPa 0,0 l/m 0,0 km/h (0 Bft) 0 min 0 min 0,0 km/h (0 Bft)
27.10.2012 23:38 14,9 C -0,4 C 0,0 UV-I 0,0 C 40 % 85 % 0 % 1013,5 hPa 0,0 l/m 0,0 km/h (0 Bft) 0 min 0 min 0,0 km/h (0 Bft)
27.10.2012 23:40 14,8 C -0,4 C 0,0 UV-I 0,0 C 40 % 85 % 0 % 1013,5 hPa 0,0 l/m 0,0 km/h (0 Bft) 0 min 0 min 0,0 km/h (0 Bft)
27.10.2012 23:42 14,8 C -0,4 C 0,0 UV-I 0,0 C 40 % 85 % 0 % 1013,5 hPa 0,0 l/m 0,0 km/h (0 Bft) 0 min 0 min 0,0 km/h (0 Bft)
27.10.2012 23:44 14,8 C -0,4 C 0,0 UV-I 0,0 C 40 % 85 % 0 % 1013,5 hPa 0,0 l/m 0,0 km/h (0 Bft) 0 min 0 min 0,0 km/h (0 Bft)
27.10.2012 23:46 14,8 C -0,4 C 0,0 UV-I 0,0 C 40 % 85 % 0 % 1013,9 hPa 0,0 l/m 0,0 km/h (0 Bft) 0 min 0 min 0,0 km/h (0 Bft)
27.10.2012 23:48 14,8 C -0,3 C 0,0 UV-I 0,0 C 40 % 85 % 0 % 1013,9 hPa 0,0 l/m 0,0 km/h (0 Bft) 0 min 0 min 0,0 km/h (0 Bft)
27.10.2012 23:50 14,8 C -0,3 C 0,0 UV-I 0,0 C 40 % 85 % 0 % 1013,9 hPa 0,0 l/m 0,0 km/h (0 Bft) 0 min 0 min 0,0 km/h (0 Bft)
27.10.2012 23:52 14,8 C -0,5 C 0,0 UV-I 0,0 C 40 % 85 % 0 % 1013,9 hPa 0,0 l/m 0,0 km/h (0 Bft) 0 min 0 min 0,0 km/h (0 Bft)
27.10.2012 23:54 14,8 C -0,5 C 0,0 UV-I 0,0 C 40 % 85 % 0 % 1013,9 hPa 0,0 l/m 0,0 km/h (0 Bft) 0 min 0 min 0,0 km/h (0 Bft)
27.10.2012 23:56 14,8 C -0,5 C 0,0 UV-I 0,0 C 40 % 85 % 0 % 1013,9 hPa 0,0 l/m 0,0 km/h (0 Bft) 0 min 0 min 0,0 km/h (0 Bft)
27.10.2012 23:58 14,8 C -0,5 C 0,0 UV-I 0,0 C 40 % 85 % 0 % 1013,9 hPa 0,0 l/m 0,0 km/h (0 Bft) 0 min 0 min 0,0 km/h (0 Bft)
_ Min-Zeit 23:18 08:56 00:00 00:00 16:08 16:04 00:00 04:26 - 20:14 - - 03:28
Minimum _ 14,8 C -0,5 C 0,0 UV-I 0,0 C 28 % 36 % 0 % 1001,9 hPa - 0,0 km/h (0 Bft) - - 0,0 km/h (0 Bft)
_ Max-Zeit 16:30 15:56 13:30 12:34 00:00 04:54 10:02 23:46 00:00 15:42 10:00 21:34 12:58
Maximum _ 20,2 C 7,5 C 1,8 UV-I 7,4 C 47 % 85 % 100 % 1013,9 hPa 0,0 l/m 20,9 km/h
W (4 Bft)
2 min 2 min 43,0 km/h
W (6 Bft)
Durchschnitt _ 16,8 C 3,1 C 0,2 UV-I 1,5 C 40 % 71 % 29 % 1006,7 hPa #0,0 l/m 8,0 km/h (2 Bft) #7:06 h #6 min. 10,3 km/h (2 Bft)
© 2012 W. Hausmann